GFSNE_sfc_thetae_000.txt.gz
Theta_e
340 341 340 335 334 335 335 334 329 322 322 328 328 335 334 334 337 337 338 336 332 331 330 329 329 330 330 330 332 332 332 334 337 341 343 346 353 356
334 339 340 336 336 336 335 334 333 329 323 328 328 333 336 335 338 338 338 337 334 332 331 329 329 330 330 330 331 331 331 332 333 335 338 340 343 349
339 340 341 344 337 334 333 333 331 330 325 327 330 335 337 338 337 339 338 337 335 332 331 329 328 328 328 328 328 328 329 329 330 332 335 338 340 344
338 340 341 338 342 342 336 339 335 335 330 330 333 331 336 337 337 338 335 334 334 332 329 327 326 325 325 325 325 325 324 325 326 327 330 334 337 340
339 340 340 340 339 337 337 333 332 332 333 328 328 331 331 331 333 336 337 336 332 332 328 327 326 325 324 323 322 321 318 318 320 322 324 327 332 336
340 341 341 341 340 339 336 339 337 333 334 328 328 326 328 332 331 326 325 328 327 329 330 327 327 327 327 324 323 322 318 316 316 317 319 321 325 329
341 342 343 342 337 336 334 338 337 332 328 326 325 325 323 323 327 327 325 326 328 330 327 326 325 328 329 327 328 328 324 321 318 316 316 317 319 322
341 343 344 340 338 332 330 330 331 332 329 325 324 324 330 330 329 326 325 323 320 329 328 323 328 327 328 327 326 324 322 321 319 319 317 316 316 318
343 343 339 335 336 339 332 328 327 325 325 331 329 329 330 330 330 328 326 324 322 324 326 323 327 324 327 326 323 322 321 319 319 318 318 317 316 316
342 338 337 334 334 337 337 334 333 333 335 332 331 330 330 329 327 325 325 324 324 325 329 321 324 321 325 327 322 321 320 318 318 318 317 316 314 313
337 336 334 334 328 322 330 330 332 332 326 321 319 317 316 316 318 321 320 318 317 319 324 320 320 320 322 322 323 321 319 317 316 317 317 315 312 311
334 332 323 327 317 316 327 329 327 328 328 326 326 323 321 324 319 323 320 315 316 315 320 318 318 317 311 317 322 323 322 320 314 314 315 315 311 324
331 337 334 316 313 311 311 327 323 321 322 323 322 319 320 322 321 322 323 317 313 312 318 321 319 315 312 311 316 319 323 324 327 326 311 312 310 319
337 334 324 309 308 309 312 311 310 310 320 320 318 315 317 317 317 317 320 319 317 319 325 328 318 313 310 309 311 319 323 326 329 331 333 320 310 311
334 314 308 306 305 306 310 310 308 318 319 316 314 314 315 316 317 319 319 323 324 325 324 328 320 315 312 312 313 318 318 323 328 341 342 332 324 323
312 320 316 312 308 311 315 313 318 319 316 313 313 314 314 313 312 311 308 309 315 319 325 325 320 318 314 315 319 319 322 321 328 336 337 337 336 335
321 324 322 322 320 320 320 319 318 316 313 313 312 311 310 309 307 308 307 312 314 314 314 320 321 320 316 317 315 316 315 317 328 330 330 328 330 337
315 319 319 319 318 318 317 314 314 310 312 310 309 309 307 306 305 305 308 311 312 315 309 313 321 315 313 316 317 315 315 315 316 328 328 326 326 331
317 319 317 317 316 315 313 311 310 310 311 308 307 307 306 305 304 305 306 309 312 313 308 313 319 311 305 305 314 313 312 313 314 317 331 328 328 330
318 318 316 315 313 312 311 310 309 308 307 306 305 305 305 304 304 304 305 308 310 313 309 313 310 309 305 307 308 314 309 311 313 315 324 332 335 324
317 315 314 313 312 312 311 309 307 304 302 304 304 304 304 304 304 305 305 303 306 311 309 305 308 310 314 313 309 309 313 309 310 312 314 320 329 328
316 314 313 313 313 312 309 306 303 303 304 304 304 304 304 304 303 304 304 305 310 311 304 304 314 309 311 308 307 307 308 310 312 312 311 312 308 315
315 314 314 312 311 308 305 303 302 304 304 304 303 303 303 303 304 304 304 305 306 308 309 312 308 306 308 307 306 307 307 306 307 308 311 310 312 312

GFSNE_sfc_thetae_003.txt.gz
Theta_e
344 347 341 336 335 334 334 338 330 322 325 331 327 340 335 336 338 337 338 340 338 333 331 330 330 332 332 332 332 332 332 333 332 333 334 336 340 344
336 346 346 337 336 335 335 334 331 327 322 328 329 336 338 335 338 338 337 339 336 334 332 331 330 331 331 332 331 331 331 332 332 332 332 333 335 338
345 342 344 349 337 334 334 333 331 330 325 330 332 337 344 343 340 341 339 341 336 334 333 331 330 329 330 329 329 329 329 329 330 330 331 332 333 334
339 344 342 338 348 349 336 345 340 340 330 333 335 332 338 343 344 343 336 333 335 332 332 330 328 326 326 326 326 325 325 325 326 327 328 330 331 331
339 343 342 345 347 340 343 338 336 339 336 329 328 331 332 333 335 341 341 337 333 333 329 328 327 326 325 323 322 321 319 319 320 321 323 325 327 329
342 343 343 344 344 345 343 345 342 337 335 330 328 328 330 329 333 328 328 330 329 330 332 328 328 330 327 324 323 323 319 316 316 317 318 319 321 324
341 341 344 345 339 338 342 334 341 335 332 330 328 328 327 327 327 330 327 328 327 330 328 329 330 330 329 328 330 330 324 321 317 316 315 315 316 318
341 342 343 341 338 333 333 332 331 331 332 329 326 327 330 331 332 331 329 323 319 329 328 326 328 327 330 332 329 326 323 321 319 318 317 315 315 315
344 342 342 338 337 338 334 329 329 328 327 332 330 331 330 331 333 330 329 325 322 324 326 322 326 326 330 330 324 323 321 320 319 318 317 316 315 314
342 342 343 342 341 335 337 334 334 338 337 332 333 334 333 332 328 326 326 326 325 325 328 319 324 324 328 330 323 322 320 319 318 317 317 315 313 312
343 343 343 338 331 325 329 328 333 335 331 327 323 319 317 317 319 321 318 316 315 317 322 320 321 320 322 323 327 323 318 317 316 316 316 315 312 310
347 344 327 330 320 320 332 331 331 332 331 330 330 324 321 324 318 323 322 317 315 314 318 314 315 316 317 323 324 324 320 318 315 314 315 314 311 320
335 337 333 317 316 313 313 328 327 322 328 324 322 323 325 324 320 324 328 318 313 311 316 314 314 319 320 317 317 317 318 318 321 321 316 311 309 315
333 333 339 315 314 312 313 315 312 312 320 319 320 320 319 317 318 320 324 321 319 320 319 321 320 322 319 313 311 316 317 321 321 322 325 322 310 309
335 316 313 311 309 308 309 312 311 317 318 319 318 317 315 316 322 319 322 323 321 320 322 327 321 321 321 314 312 313 316 318 323 324 326 332 325 315
316 322 319 316 311 313 316 314 318 319 319 317 314 315 315 313 312 311 308 307 306 312 323 327 321 322 319 317 314 312 317 313 317 320 322 336 329 327
327 328 324 323 323 322 321 322 320 319 317 315 313 312 310 310 309 308 306 306 306 311 314 319 319 324 325 318 312 313 314 313 314 316 317 329 332 334
322 322 321 321 319 319 319 319 318 315 315 313 311 310 308 307 306 306 307 306 307 310 313 317 316 315 313 315 318 313 314 312 312 315 316 323 325 331
318 319 319 319 319 318 316 315 313 313 315 310 308 308 307 306 305 305 305 306 307 310 314 316 312 311 304 303 312 314 310 310 310 311 314 315 324 328
317 318 318 318 316 314 313 312 312 310 309 307 306 306 306 305 304 304 305 306 306 310 313 311 305 309 306 305 308 312 308 309 307 308 310 313 318 323
319 318 317 316 315 314 313 312 311 308 304 303 305 305 305 304 304 304 304 302 303 309 310 312 310 310 312 318 309 308 311 308 308 309 309 309 313 327
319 318 317 316 315 314 313 310 307 305 305 305 305 305 305 304 303 303 304 304 305 306 309 313 313 309 312 309 306 307 307 310 310 310 310 309 307 306
319 318 317 317 315 314 311 307 304 303 304 304 304 304 304 303 304 304 304 304 304 305 308 306 311 309 310 306 306 308 306 305 306 305 306 308 309 308

GFSNE_sfc_thetae_006.txt.gz
Theta_e
346 345 342 339 340 340 338 336 328 323 323 330 330 336 333 336 339 338 337 341 339 336 333 331 331 332 333 333 333 333 333 333 333 334 333 333 332 334
343 343 342 341 342 340 334 337 332 329 323 330 331 335 338 338 339 337 338 341 339 336 332 331 331 332 332 333 333 332 332 333 332 333 333 333 334 333
344 343 342 346 342 339 341 337 333 333 328 330 333 335 335 335 336 338 340 337 337 334 333 331 330 330 331 331 330 330 331 330 330 331 332 332 333 333
343 343 341 340 343 341 341 338 338 337 332 329 333 333 334 337 337 336 336 334 332 334 334 332 330 329 328 327 327 326 325 326 326 327 328 330 331 332
341 341 341 341 341 342 340 339 337 336 333 330 328 332 331 331 330 332 331 336 337 336 331 329 328 327 326 324 323 321 319 318 320 321 323 325 327 329
345 344 344 341 341 341 339 339 339 336 332 328 328 328 330 331 332 327 326 331 331 331 333 329 330 329 327 324 324 323 319 316 315 316 317 319 321 323
340 344 343 344 340 340 339 337 338 334 329 326 323 324 325 327 325 327 325 326 326 328 328 327 326 326 327 327 329 330 324 321 318 316 315 315 315 317
338 343 345 339 337 333 333 333 337 333 328 324 323 322 324 327 328 326 325 322 319 327 325 321 325 323 323 324 326 326 324 323 321 318 316 315 315 315
339 342 339 338 338 339 333 330 330 329 329 327 324 325 326 328 327 325 324 322 319 322 322 317 321 321 324 325 325 325 323 319 318 317 317 316 315 314
340 341 335 339 341 340 337 337 332 332 332 331 329 328 330 332 329 325 322 320 321 321 322 315 318 316 320 322 321 320 320 318 318 318 316 314 311 310
340 340 339 342 335 325 333 330 330 333 332 325 328 325 321 318 320 322 317 315 314 316 320 315 316 312 312 313 315 321 319 317 315 315 316 315 313 311
340 340 328 333 325 321 330 331 330 331 332 331 329 324 320 322 319 320 319 315 315 314 318 312 310 308 304 313 320 322 321 317 314 313 314 314 312 315
334 336 338 320 317 316 316 328 324 318 324 325 325 322 323 324 323 325 324 321 313 310 314 312 309 307 308 312 318 319 320 319 319 318 315 312 310 311
335 338 327 313 315 316 313 313 313 314 320 320 319 318 320 319 319 319 319 319 318 315 317 317 311 310 314 312 311 317 319 318 317 319 320 316 313 312
336 319 314 310 315 310 312 313 313 317 317 316 317 319 316 317 319 317 319 318 316 316 313 321 319 318 316 312 313 315 313 315 317 317 315 315 316 319
317 318 318 318 317 317 318 312 316 319 319 319 316 317 318 315 312 313 310 308 305 305 312 322 320 319 314 315 315 313 314 312 315 315 314 314 316 319
325 327 322 323 322 320 319 321 320 320 319 320 317 315 311 311 310 311 308 305 304 305 308 315 320 320 318 315 311 312 313 312 312 311 311 310 314 318
326 330 326 324 322 319 318 318 319 319 319 316 314 311 309 309 308 307 307 307 305 307 308 315 313 311 312 312 316 311 312 310 310 310 310 309 309 315
327 325 321 323 323 322 320 318 316 318 316 314 313 311 309 308 306 306 306 306 306 305 307 314 308 307 305 304 310 314 311 309 309 307 308 308 307 310
321 320 321 323 322 320 318 317 316 315 312 311 308 307 307 307 306 305 305 305 304 304 304 313 310 309 305 305 307 312 307 309 307 305 306 307 309 312
318 318 321 321 321 320 319 318 315 312 308 306 306 306 308 305 305 304 304 302 303 304 307 309 313 311 310 311 307 307 311 308 308 306 306 303 303 305
324 321 321 321 320 319 318 316 313 310 308 308 308 307 307 306 303 303 303 303 303 305 307 310 310 312 310 306 304 306 308 308 309 309 308 306 303 298
325 324 322 322 321 319 317 313 309 306 306 307 306 306 306 304 305 305 303 303 303 302 304 302 310 310 308 307 306 304 304 304 305 302 303 306 307 306

GFSNE_sfc_thetae_009.txt.gz
Theta_e
330 331 330 329 330 330 330 325 319 313 315 320 319 328 329 330 331 331 327 335 336 336 333 331 332 333 334 335 334 334 334 334 335 334 334 333 332 333
333 332 331 330 330 331 329 326 325 322 316 321 323 325 331 332 334 333 330 339 337 336 333 331 331 332 333 334 334 333 333 334 334 334 334 334 334 333
332 330 332 332 330 329 331 328 327 326 319 322 323 327 325 326 329 330 333 333 332 334 333 332 330 330 331 332 332 332 332 332 332 332 333 334 334 334
332 330 329 332 331 330 333 331 329 327 323 320 325 325 326 326 327 329 333 335 330 334 334 332 329 328 328 328 328 328 327 327 327 328 330 330 332 332
334 334 333 331 330 331 334 333 331 330 326 323 322 326 328 327 326 325 326 326 331 335 331 329 328 328 327 325 325 323 320 319 320 322 323 325 327 329
334 336 334 332 332 332 332 331 331 330 327 326 322 323 325 327 327 323 320 323 324 330 332 330 329 330 328 325 324 324 319 316 316 316 317 318 320 323
334 337 336 338 338 334 333 332 332 330 327 323 319 318 320 319 322 321 321 321 322 323 323 322 320 319 321 324 328 330 325 321 318 317 316 315 315 317
335 337 334 339 337 333 333 334 334 329 322 320 319 318 318 322 321 320 319 317 315 322 317 317 317 317 317 318 324 324 322 321 319 318 317 315 315 315
337 336 335 337 335 333 330 330 329 330 328 324 320 318 318 321 321 318 316 316 314 318 313 313 314 314 319 320 321 322 320 319 318 317 317 316 315 314
337 336 333 331 334 330 331 328 330 328 327 327 324 325 323 325 323 321 318 314 314 315 316 310 313 311 312 312 317 318 316 315 317 316 316 314 312 310
334 334 331 331 330 325 328 326 325 325 328 325 325 325 322 320 321 316 313 309 308 309 312 310 311 305 305 305 305 314 315 316 316 316 315 314 311 309
330 333 328 329 325 322 325 322 321 323 319 320 320 320 318 317 319 315 316 312 308 307 312 305 303 302 300 302 307 311 315 316 313 312 313 312 310 313
327 328 329 322 318 318 319 322 320 312 314 313 314 315 314 315 318 319 320 316 311 308 309 305 302 301 300 301 310 315 315 316 317 317 313 310 309 311
327 326 317 314 314 318 314 311 311 312 311 311 310 310 311 309 311 310 311 313 312 309 310 309 306 304 303 309 310 312 314 316 317 315 315 314 311 310
325 321 312 312 314 311 313 312 313 308 308 308 308 310 308 311 308 306 306 304 303 302 305 303 306 307 310 311 309 311 311 312 314 314 315 314 313 313
317 315 314 313 311 313 312 310 308 309 310 309 309 308 308 304 303 303 301 300 297 298 302 304 309 315 308 309 310 310 310 307 312 313 313 312 312 313
316 313 311 311 311 311 311 312 311 313 312 311 310 304 301 302 301 300 299 297 295 297 298 304 311 312 314 312 309 308 308 308 311 310 310 308 309 311
318 316 314 315 314 314 313 313 316 317 314 306 303 301 300 300 299 299 298 297 297 297 299 300 306 303 304 306 313 308 308 309 311 310 309 306 305 309
317 316 315 313 312 312 313 312 308 309 305 303 301 300 299 298 299 297 297 297 297 296 299 298 302 301 300 300 307 312 309 309 309 307 307 305 304 305
313 312 311 312 310 308 306 305 304 302 300 297 296 295 295 297 297 296 296 295 295 296 297 300 302 303 301 301 304 309 307 307 306 304 303 304 305 308
309 309 314 311 308 307 306 305 303 300 297 296 295 296 298 296 295 295 296 299 298 295 295 299 303 311 305 305 302 303 307 307 306 305 303 300 300 301
312 311 313 311 308 307 306 304 301 300 298 297 297 297 296 296 295 295 296 295 295 296 295 301 301 304 306 301 300 301 301 303 306 307 307 303 299 296
312 311 310 309 308 307 305 302 299 298 296 296 296 295 295 295 296 296 295 296 296 295 294 294 296 303 301 301 301 298 299 300 301 300 300 303 303 303

GFSNE_sfc_thetae_012.txt.gz
Theta_e
328 327 328 326 328 327 326 321 316 311 312 318 317 324 328 329 330 331 330 332 336 334 333 331 332 333 335 335 336 336 336 335 335 335 335 335 333 333
330 327 328 327 326 328 325 324 321 318 313 318 320 322 325 329 332 333 329 335 335 334 333 332 332 332 333 334 334 334 334 334 335 334 335 335 335 334
332 330 329 328 326 326 326 325 323 322 317 319 322 323 325 323 325 326 330 330 330 333 333 332 330 331 332 332 332 332 333 333 333 333 334 334 335 335
328 328 327 331 331 327 328 327 326 324 321 319 321 324 324 326 326 326 329 332 330 333 331 330 329 329 328 328 328 328 327 328 329 330 331 332 333 333
331 328 328 330 327 326 328 326 327 328 326 322 321 324 324 324 324 324 324 324 327 334 331 329 328 327 326 325 323 322 319 319 321 322 324 325 327 329
332 332 331 331 331 330 329 330 330 327 328 326 325 323 321 322 322 321 320 320 321 327 330 328 329 328 326 324 325 324 319 317 316 316 317 318 320 322
332 332 332 335 335 332 332 328 327 328 328 325 322 319 317 317 317 318 318 318 319 321 319 319 318 316 317 321 325 328 325 321 318 317 316 315 315 316
330 331 333 338 335 334 332 331 331 329 326 323 318 316 317 316 317 317 316 314 312 319 315 314 313 313 315 315 322 323 321 320 318 317 316 314 314 315
331 331 333 336 334 334 330 329 328 329 329 324 319 318 317 317 318 316 315 315 313 317 312 309 312 311 315 317 321 320 319 317 315 314 314 314 314 313
333 333 335 334 332 330 329 329 327 327 329 328 324 324 321 322 320 320 318 315 312 313 313 308 311 311 312 311 316 317 316 314 313 314 314 313 311 310
332 334 335 333 326 324 329 324 324 325 325 322 322 322 321 320 321 317 314 309 308 308 310 309 309 306 304 304 305 312 312 311 313 313 314 313 310 309
332 333 326 328 322 320 327 323 322 323 321 317 317 317 319 318 318 316 313 309 306 306 310 308 303 301 299 299 301 305 306 311 312 311 312 311 309 312
328 329 330 321 316 315 317 321 321 318 316 311 311 312 312 311 312 314 313 312 309 307 312 305 301 300 298 298 301 308 311 313 312 314 311 310 308 309
328 327 323 313 309 314 318 317 311 312 310 309 307 307 308 307 307 308 307 309 311 310 309 306 303 301 298 298 300 308 311 312 312 313 313 311 309 309
329 321 310 307 309 313 312 311 311 308 306 306 306 307 307 307 305 303 303 302 300 299 303 299 301 299 300 302 306 306 308 309 312 310 311 311 311 311
319 315 314 314 312 312 311 311 309 307 307 307 306 307 306 301 300 301 299 297 295 296 300 301 302 304 307 307 306 307 309 304 308 309 310 311 312 311
313 312 310 309 309 308 308 309 307 307 308 307 308 305 300 299 299 298 297 294 293 294 296 298 301 304 307 307 305 307 306 306 309 309 310 308 309 309
313 310 309 309 309 309 309 309 309 312 309 308 303 299 298 298 296 296 295 294 293 294 294 295 296 301 302 304 311 305 304 306 309 309 309 304 303 306
314 313 312 312 312 312 312 310 309 309 305 301 300 298 296 295 295 295 294 293 293 293 294 294 295 298 297 298 302 310 304 306 306 305 303 304 302 302
314 314 312 310 309 307 306 304 302 299 297 296 295 294 293 294 295 293 293 292 293 293 293 295 297 299 298 298 299 304 305 303 303 301 301 302 303 305
310 309 309 308 306 304 303 302 300 299 297 295 293 293 295 295 293 293 293 297 296 292 292 293 296 306 302 302 298 298 302 304 304 301 301 298 296 296
309 309 308 306 305 304 303 301 299 298 296 295 294 294 294 294 292 292 293 293 292 293 292 294 295 298 301 298 296 297 298 301 303 305 305 301 295 292
310 308 307 307 306 305 303 301 299 297 295 293 294 294 293 292 292 293 292 293 293 293 291 291 292 298 298 297 298 295 295 297 298 299 298 302 300 299

GFSNE_sfc_thetae_015.txt.gz
Theta_e
328 328 326 325 327 324 322 318 314 310 311 316 318 321 325 325 327 327 332 332 335 333 332 331 332 333 335 336 336 336 337 337 337 336 336 336 334 333
327 325 325 324 324 324 324 323 317 315 313 317 319 320 323 326 329 330 328 335 334 333 333 332 332 333 334 335 335 335 335 335 336 336 335 335 336 336
330 327 325 326 324 325 324 323 321 318 315 320 320 321 323 324 324 325 326 326 327 332 332 331 331 331 332 333 333 333 333 333 334 334 335 336 336 336
329 328 327 329 326 326 324 324 322 321 319 317 321 324 324 326 324 324 326 329 328 332 330 329 328 327 328 328 328 328 327 327 328 330 332 333 334 334
328 327 327 326 324 325 325 325 324 325 322 320 322 322 323 324 324 322 322 323 326 332 329 328 327 327 325 324 322 321 318 318 320 321 323 325 327 328
332 329 327 327 326 325 324 325 325 323 324 322 323 321 321 324 321 319 319 319 320 325 328 327 327 326 325 322 322 323 319 315 315 315 317 318 319 322
332 331 330 331 333 330 328 326 326 323 323 323 323 321 320 319 316 317 316 317 318 319 319 318 317 314 314 319 321 324 321 320 318 316 315 315 315 316
331 331 331 335 334 332 331 331 329 324 324 320 321 319 318 316 316 316 314 313 313 317 315 316 313 312 313 314 321 322 321 319 317 316 315 313 313 313
334 333 331 334 333 333 330 329 328 328 327 323 320 321 319 321 317 314 313 314 313 316 314 311 310 311 313 316 320 320 319 317 315 314 313 313 312 312
335 333 329 329 331 332 330 328 325 326 327 326 323 325 324 321 319 318 316 314 312 313 312 308 309 309 312 312 317 318 317 315 314 312 312 312 310 309
336 331 331 330 328 324 328 325 324 326 325 322 321 320 319 319 320 320 317 313 308 308 309 308 308 307 305 305 306 313 312 311 310 311 312 312 310 308
327 329 327 332 320 319 329 324 321 323 323 319 318 314 314 314 318 316 314 310 305 305 309 307 304 301 298 299 298 301 301 307 308 309 311 311 309 309
328 328 329 319 314 313 317 325 323 319 318 313 310 310 309 309 310 310 311 310 307 306 311 306 301 299 297 297 298 302 304 307 309 310 310 308 307 309
326 329 328 315 310 309 313 315 313 314 311 308 306 306 307 306 306 306 304 307 310 309 309 304 302 299 296 295 296 302 306 308 308 309 310 309 308 308
330 324 311 306 306 310 314 313 311 309 307 306 305 305 307 305 303 301 302 300 298 298 302 298 300 298 297 297 299 303 303 305 309 307 308 308 309 310
317 314 314 313 313 313 311 310 309 307 307 306 305 305 305 301 299 299 297 296 294 295 298 298 297 297 299 301 302 303 306 302 306 308 308 309 311 310
315 313 313 311 310 308 307 308 307 306 306 305 306 305 302 298 298 297 295 293 292 292 293 296 297 298 299 301 301 302 303 302 305 306 307 305 307 307
313 312 311 310 310 308 307 307 307 309 306 306 306 303 298 297 296 295 294 292 291 291 291 292 293 295 300 301 308 302 300 301 304 305 304 301 300 303
316 311 311 309 309 309 309 308 308 309 308 306 301 298 297 295 294 294 292 292 291 291 292 291 291 293 294 293 298 310 302 301 300 300 300 299 299 300
313 312 311 311 310 310 308 308 304 302 300 298 295 294 293 292 294 292 291 290 290 291 291 292 291 292 294 294 297 301 304 299 298 299 298 300 301 304
312 312 312 311 309 306 305 302 300 298 296 295 294 292 293 294 292 292 291 295 295 290 291 291 293 301 297 299 296 296 299 303 302 299 299 298 296 296
312 311 309 307 305 303 302 300 299 298 296 294 293 292 292 293 292 291 291 291 291 291 291 292 292 296 298 296 294 294 296 297 302 304 305 304 297 292
310 309 307 305 304 303 301 300 302 297 296 294 293 293 293 291 291 291 291 291 291 291 289 289 291 294 296 295 296 293 294 296 297 296 298 304 303 301

GFSNE_sfc_thetae_018.txt.gz
Theta_e
334 332 332 332 330 328 327 326 325 319 320 326 326 330 333 332 332 334 336 336 335 336 332 331 332 334 335 336 337 337 337 337 338 337 337 337 336 335
333 333 332 331 331 332 331 329 325 325 322 324 327 330 331 333 334 338 335 334 335 333 332 332 332 333 334 335 335 336 336 336 337 337 337 337 337 337
334 332 332 332 330 330 330 330 327 325 323 327 327 330 332 334 334 334 334 335 334 331 332 331 330 331 332 333 333 333 334 334 334 335 336 336 337 337
334 333 332 331 332 331 330 331 329 329 330 328 329 330 331 333 334 334 333 333 334 332 330 329 328 328 327 328 327 327 326 326 327 328 330 332 334 335
334 334 334 333 332 332 332 331 331 331 330 329 328 330 330 331 332 332 331 332 331 332 329 328 327 326 325 323 321 320 318 317 319 320 322 324 326 328
335 334 333 333 332 331 331 332 332 332 330 330 329 331 330 330 329 327 327 328 328 330 331 328 328 327 324 321 321 322 319 317 315 316 317 318 320 322
335 335 334 333 333 332 331 332 332 330 330 330 329 329 327 326 326 326 325 325 326 328 329 329 328 327 326 322 323 324 321 319 317 316 315 314 314 315
335 335 337 336 334 330 330 330 333 332 331 330 329 328 329 326 326 325 323 322 322 327 326 326 325 326 326 323 322 322 321 320 318 316 314 313 313 313
338 336 335 337 335 336 330 329 329 328 330 334 330 328 327 327 326 323 321 324 324 327 325 323 325 323 325 323 320 320 319 318 316 315 313 312 311 311
338 338 337 337 336 336 337 335 334 333 333 334 334 333 332 331 330 328 326 324 322 324 323 318 322 319 322 322 318 318 317 315 314 313 312 310 309 308
339 338 337 337 327 325 335 334 333 332 324 323 324 322 320 320 326 325 321 318 318 319 319 318 319 317 317 315 316 313 312 311 310 310 311 310 308 308
338 338 327 332 320 320 336 334 328 327 330 327 324 320 319 318 319 325 322 318 317 315 318 315 315 312 306 311 310 312 313 310 307 307 309 310 308 317
333 332 334 320 315 314 321 332 331 329 324 326 320 318 318 318 318 319 321 319 316 314 318 317 312 310 307 305 308 311 312 313 316 316 310 308 307 309
333 334 332 315 311 311 316 317 312 319 322 318 316 315 317 315 315 315 315 317 319 318 318 317 310 308 307 303 303 310 312 314 317 316 317 312 309 308
334 328 314 307 307 310 313 312 314 321 317 315 314 314 316 316 314 312 312 310 310 310 309 310 308 308 306 306 305 305 307 312 315 317 314 313 312 313
318 319 315 316 316 318 317 316 320 318 317 315 314 314 315 314 311 309 309 306 305 306 309 308 308 307 304 306 307 306 311 310 313 313 312 311 312 312
318 320 320 320 319 318 317 316 315 315 315 314 314 314 314 311 309 307 305 304 303 302 303 305 308 307 306 306 306 308 309 310 312 312 310 307 308 309
323 323 321 320 320 317 316 315 314 314 315 315 315 314 314 310 307 304 304 303 302 302 301 302 302 303 306 308 310 307 309 310 311 310 308 304 304 307
323 323 323 320 318 317 316 315 315 316 316 314 315 314 310 306 304 303 303 301 301 301 302 302 301 302 300 298 305 310 310 310 309 305 305 304 303 305
326 322 321 319 318 317 316 316 316 315 315 315 313 310 306 303 301 302 301 300 300 302 301 303 301 301 300 301 302 306 305 309 306 304 303 304 306 306
322 322 321 319 319 318 317 316 315 313 311 309 306 303 302 302 303 302 301 297 299 301 300 301 303 302 303 306 305 306 308 303 305 305 303 302 300 300
321 320 320 320 319 317 314 313 311 307 306 305 305 303 302 303 302 301 300 301 301 301 301 301 303 302 307 307 305 305 305 306 306 305 306 303 300 295
321 320 318 318 316 314 312 310 310 308 307 306 304 303 302 301 302 301 301 300 300 301 300 299 301 302 304 305 303 303 304 303 302 302 302 304 304 304

GFSNE_sfc_thetae_021.txt.gz
Theta_e
346 346 343 342 340 339 336 336 331 325 326 333 332 340 343 345 343 341 343 339 338 337 335 334 333 334 336 337 338 338 339 339 339 339 339 340 338 337
343 345 344 342 342 340 338 337 335 332 326 334 334 340 343 342 342 344 343 338 336 335 334 333 333 334 335 336 336 336 337 337 338 338 338 338 339 339
345 345 345 346 341 340 340 340 338 336 330 334 337 341 342 342 341 343 342 343 340 333 332 332 331 332 333 334 334 333 334 334 334 335 336 336 337 338
346 344 343 341 343 343 340 342 340 340 335 336 338 337 340 343 343 344 341 338 340 336 332 331 330 330 330 329 328 327 326 326 327 328 329 331 332 333
348 345 343 343 341 339 340 339 338 339 338 335 334 339 339 340 340 342 342 341 338 335 330 330 329 329 328 326 324 321 318 318 319 321 323 325 326 327
350 347 345 342 342 341 341 341 340 338 339 336 335 335 337 341 338 335 334 337 334 334 333 330 330 330 327 323 323 323 320 318 317 317 318 319 321 323
350 348 345 343 339 340 341 341 342 338 336 334 333 334 333 335 335 334 333 333 335 335 332 333 334 333 332 326 326 326 323 320 318 317 316 315 315 316
351 349 347 339 338 332 332 335 341 340 339 335 334 333 339 338 336 333 332 329 326 335 332 329 336 331 332 333 328 324 321 320 319 318 316 314 313 314
353 350 346 344 340 342 331 330 331 331 335 343 339 338 337 340 338 334 334 332 330 333 333 327 331 329 330 328 323 322 320 319 318 317 315 314 313 311
353 351 349 347 345 343 344 341 340 341 339 339 342 344 342 342 339 338 338 336 333 332 334 322 326 325 327 325 320 320 317 315 315 314 313 311 309 307
353 352 350 348 336 328 340 343 343 343 331 326 328 325 323 324 330 335 330 327 325 325 329 323 322 321 321 319 319 317 313 312 310 310 311 310 308 307
351 350 331 343 321 322 338 343 340 341 339 335 334 321 325 325 323 335 329 322 320 319 325 318 317 316 311 314 315 315 315 312 310 309 310 310 308 319
345 344 348 322 316 315 322 345 339 341 333 336 331 330 330 328 325 327 329 324 320 318 321 319 315 313 310 309 311 313 313 314 316 316 310 309 308 310
345 342 340 316 313 313 320 322 316 326 336 333 330 328 324 323 323 324 326 325 325 323 323 323 313 310 308 307 306 310 312 314 317 316 316 313 309 308
343 334 320 312 312 313 316 314 317 335 333 330 328 325 324 324 325 323 322 322 322 320 316 320 314 313 310 307 306 308 309 311 314 314 316 317 316 315
326 324 320 321 321 326 320 320 335 335 332 330 327 325 324 322 321 321 319 318 314 313 318 317 317 315 308 308 309 309 310 307 312 314 316 316 314 313
322 325 325 328 327 330 330 332 331 329 328 327 324 321 321 321 321 320 318 316 311 311 308 310 315 317 313 313 308 308 308 309 313 314 315 310 310 311
325 324 324 327 328 328 327 327 327 324 327 324 323 322 321 321 320 318 315 312 310 308 307 308 309 308 308 312 314 308 308 308 312 314 312 307 307 310
330 327 327 327 329 329 328 325 325 326 328 323 323 323 323 322 315 315 312 311 308 307 306 308 308 306 303 301 308 311 308 309 310 308 308 307 306 308
330 327 329 329 329 328 327 326 327 325 324 323 323 324 322 319 314 312 310 308 307 306 306 308 308 307 304 303 304 309 305 312 309 307 305 306 307 307
330 331 334 333 331 331 328 327 326 324 324 324 323 321 319 315 312 310 308 302 303 306 305 306 308 302 308 311 307 306 309 305 308 309 306 304 302 303
334 334 334 332 333 331 328 326 325 323 323 322 320 317 315 313 310 308 307 306 306 305 306 308 310 309 308 307 304 306 306 309 307 307 307 306 303 298
334 335 333 333 332 329 326 324 323 322 321 319 317 315 314 311 310 309 307 306 305 305 306 306 306 307 306 306 305 305 307 305 304 303 304 306 306 304

GFSNE_sfc_thetae_024.txt.gz
Theta_e
354 351 344 341 344 342 340 338 333 328 329 337 333 342 341 341 345 344 343 343 341 338 336 335 336 337 337 338 339 339 340 340 340 340 340 341 340 339
352 351 350 342 344 343 340 338 336 333 329 335 335 340 341 340 342 343 344 343 339 336 336 334 334 335 335 336 337 337 338 338 338 339 339 339 340 339
355 351 351 351 341 341 341 339 337 336 331 334 337 343 346 346 343 343 345 345 342 337 335 333 332 333 334 335 335 334 334 334 334 335 335 336 337 337
356 353 351 346 348 350 342 347 344 344 336 338 341 338 345 347 348 347 344 341 341 337 336 333 332 332 332 332 331 330 329 327 327 328 329 330 331 332
358 355 353 349 347 344 344 341 341 340 342 336 335 340 340 342 344 347 346 346 342 338 332 332 331 331 329 328 327 325 320 318 320 322 323 325 327 328
361 358 355 351 348 347 344 345 344 339 342 337 335 335 338 343 340 336 338 342 339 338 338 332 336 333 330 328 326 324 320 318 318 319 319 321 322 323
362 360 358 352 342 344 343 348 350 341 336 336 334 334 334 335 337 336 334 335 339 340 337 336 336 337 335 328 331 329 326 323 320 318 318 317 317 317
363 362 360 347 344 335 334 337 346 346 345 335 335 336 341 340 339 336 334 332 329 340 337 335 336 334 336 336 327 325 323 321 320 319 318 316 315 315
366 363 358 354 347 350 335 332 333 333 337 346 343 342 342 344 346 344 338 336 333 336 340 332 335 331 333 331 326 323 322 320 319 318 317 315 314 313
363 362 361 360 354 351 351 342 343 344 343 341 344 346 350 347 347 344 342 340 339 338 340 328 330 326 329 329 323 320 319 316 316 315 314 312 310 308
364 363 363 361 343 331 351 348 347 345 333 329 331 328 329 330 334 339 334 331 329 329 335 328 325 323 325 324 323 318 313 312 312 313 312 311 309 307
364 367 335 354 328 324 348 350 347 346 344 345 343 333 329 332 324 339 335 330 327 322 330 325 320 320 316 320 319 318 317 315 312 310 311 311 309 318
353 355 358 327 316 318 328 349 347 346 339 344 342 340 339 338 334 335 336 329 323 321 325 326 319 318 314 312 314 315 316 315 317 316 309 308 308 311
355 355 355 319 314 314 323 326 320 327 344 339 338 335 334 333 332 331 333 331 330 328 328 329 318 315 312 310 309 313 314 316 316 316 318 313 309 309
356 346 326 314 311 315 319 319 321 340 340 337 337 336 334 333 333 330 331 331 329 329 323 324 319 317 312 309 309 311 310 313 315 315 315 316 318 319
326 331 324 321 322 325 321 325 341 340 341 338 337 336 333 328 326 325 322 322 320 320 325 323 321 318 311 311 311 310 311 309 312 314 316 317 318 317
324 326 327 329 328 329 331 331 337 338 337 339 336 332 328 326 324 325 323 321 319 317 316 318 322 321 316 316 309 311 312 311 312 313 317 313 315 315
329 330 330 332 332 331 331 331 334 334 335 336 333 329 326 325 324 324 322 320 317 316 315 313 312 311 312 317 317 311 311 311 312 315 316 310 310 312
334 332 332 331 332 329 331 333 332 334 339 333 330 328 326 325 323 322 321 319 316 315 312 311 310 310 307 305 311 313 309 310 311 311 311 310 308 309
336 332 332 332 332 333 333 333 334 334 333 332 329 327 325 325 323 321 319 317 315 312 310 310 311 311 309 307 306 309 306 313 310 309 308 309 309 309
334 333 336 335 335 334 335 336 336 333 331 330 327 326 326 324 322 320 318 307 307 311 309 309 313 310 312 311 309 310 313 305 309 311 309 305 304 304
333 334 336 336 337 337 335 334 333 330 330 328 327 326 324 323 320 318 316 313 310 308 309 311 313 312 311 309 307 309 309 312 311 308 308 306 304 299
334 335 337 337 340 339 334 333 330 328 327 327 326 324 323 320 320 317 315 312 310 309 309 309 310 310 309 309 307 308 311 310 308 307 307 310 309 308

GFSNE_sfc_thetae_027.txt.gz
Theta_e
360 358 348 342 344 343 342 339 335 330 334 339 334 348 341 342 345 344 344 343 343 340 337 337 337 338 339 340 340 340 340 341 341 341 341 342 341 341
356 362 357 343 345 344 341 340 338 334 329 337 338 344 345 340 343 342 343 342 342 339 337 336 336 336 336 337 337 338 338 339 339 339 339 340 340 339
364 363 359 360 342 341 342 340 338 337 332 335 339 349 353 347 345 345 344 348 342 336 336 336 334 334 335 335 336 336 335 334 334 334 333 334 335 335
361 362 357 350 357 357 343 355 345 350 336 348 347 342 348 353 353 355 345 341 345 337 338 335 333 332 333 334 334 333 331 329 328 326 327 328 329 330
364 363 359 358 357 345 347 345 342 344 345 338 337 340 342 344 349 352 353 350 344 338 334 333 332 332 331 330 328 327 322 320 320 322 323 324 326 328
367 366 363 360 357 356 352 352 351 344 343 339 336 335 338 348 343 340 342 344 341 340 340 336 335 332 331 328 328 326 322 319 319 320 320 321 323 323
367 367 366 360 349 351 348 351 350 345 336 336 336 336 334 339 341 340 337 342 342 343 343 343 340 335 335 330 333 331 327 324 322 320 319 318 318 319
367 368 369 352 347 338 337 339 347 351 345 336 335 336 349 345 341 338 338 336 335 343 340 338 342 341 339 338 331 333 328 322 321 320 318 317 317 316
369 368 365 359 353 355 337 335 333 336 340 351 346 346 350 352 352 345 348 341 336 343 347 334 338 334 334 327 326 327 323 320 319 318 317 316 315 314
368 368 368 364 361 358 355 349 348 347 348 344 350 352 353 355 352 350 350 347 342 340 346 330 335 330 331 331 326 324 321 317 316 316 315 313 311 309
368 369 368 367 347 336 357 355 350 347 335 331 333 332 331 334 342 347 337 334 331 333 343 332 330 326 326 326 326 321 319 314 314 315 315 313 310 308
364 368 340 359 332 328 355 356 351 348 347 342 337 332 333 334 327 348 339 334 332 330 335 327 326 323 318 325 324 322 321 314 312 311 312 312 309 316
359 360 364 331 323 321 333 356 350 350 342 347 340 343 343 343 341 339 342 337 331 328 329 330 324 321 319 317 320 320 318 319 319 318 309 308 308 312
358 359 359 323 317 318 327 332 323 336 351 345 340 338 338 339 340 340 341 341 337 334 330 332 323 319 317 314 312 317 318 320 320 319 320 315 308 308
360 349 335 317 316 319 322 321 322 348 347 339 339 338 338 338 343 338 340 339 336 333 329 331 324 326 317 312 310 311 312 315 319 319 319 319 318 320
343 350 332 330 331 340 326 327 345 348 344 339 339 341 342 334 329 331 328 327 324 324 332 333 330 326 314 313 312 311 313 310 316 318 318 318 319 319
342 344 337 335 334 332 334 335 340 342 340 341 340 339 335 327 328 331 328 325 322 321 321 324 329 327 319 323 311 312 313 313 315 317 317 314 316 317
339 337 334 334 332 331 331 333 337 336 338 338 336 334 330 327 329 329 328 325 322 320 320 320 320 316 314 320 319 313 313 312 315 317 318 312 311 315
342 338 336 335 334 332 333 334 333 334 337 337 335 337 331 331 328 327 326 325 322 320 319 319 316 312 308 306 316 315 312 312 312 314 313 311 310 312
342 340 337 335 334 332 334 335 333 334 335 337 338 337 331 331 328 326 325 324 320 319 317 316 314 312 310 309 310 312 306 314 312 311 311 312 312 310
337 341 336 335 334 334 335 334 332 335 335 335 335 334 332 329 327 326 323 313 317 318 314 313 315 313 317 316 307 309 317 306 313 315 313 307 307 307
331 334 337 336 334 333 333 333 333 336 334 334 333 333 330 328 325 324 321 318 316 315 314 314 318 315 313 309 308 313 311 314 309 308 309 309 306 300
331 331 331 333 333 334 334 334 334 333 333 333 331 329 328 326 326 324 320 318 316 313 312 310 311 313 311 310 309 309 315 315 311 311 312 310 310 309

GFSNE_sfc_thetae_030.txt.gz
Theta_e
359 360 354 349 351 349 348 344 339 333 333 341 338 343 347 343 344 341 341 341 340 339 337 336 337 338 339 339 339 339 339 339 340 340 340 341 341 341
358 357 354 346 347 350 348 346 344 338 332 338 341 341 342 345 344 345 344 342 341 340 338 336 336 337 337 337 337 338 338 338 339 338 338 338 339 338
360 359 353 351 348 348 347 347 344 342 334 338 345 347 345 342 341 343 344 342 339 336 336 336 334 335 335 335 335 336 336 335 334 333 333 333 334 334
359 359 354 351 352 353 352 345 344 345 340 339 343 344 344 346 348 348 344 340 343 339 335 335 334 333 333 333 333 334 332 330 328 326 326 328 329 330
361 358 356 353 350 346 348 349 346 348 349 340 340 346 345 347 345 347 348 346 346 339 332 332 332 332 330 329 329 327 325 323 322 322 323 324 326 327
363 361 359 354 352 350 347 344 348 342 343 343 339 338 344 344 344 339 341 344 342 342 337 335 333 332 330 327 327 326 322 320 318 319 320 321 322 323
361 363 361 357 349 350 347 348 342 347 342 337 336 338 338 340 338 340 339 339 342 342 337 335 334 332 331 330 332 331 327 325 321 320 318 318 317 318
360 361 363 353 349 341 340 341 345 341 339 336 335 334 336 340 342 338 337 335 331 344 339 337 340 338 332 334 333 332 328 326 322 320 318 317 316 316
362 362 361 360 352 352 339 337 336 337 339 341 336 338 341 344 343 343 341 339 335 340 337 332 337 335 334 328 327 327 328 324 319 318 316 314 313 313
362 362 361 360 359 355 350 344 344 342 340 343 344 343 348 351 350 347 343 342 341 340 340 328 335 333 332 325 324 325 322 323 319 315 314 312 310 309
361 363 363 361 349 336 352 346 344 344 335 332 333 336 334 333 344 343 339 335 332 333 338 333 333 331 326 326 323 322 319 318 316 314 314 313 311 308
358 361 340 356 337 327 352 351 345 344 344 340 338 332 332 335 332 344 339 333 331 330 335 332 330 325 318 324 324 316 315 314 311 311 312 312 311 309
355 356 358 331 327 321 333 353 348 348 341 343 339 338 338 339 337 341 344 338 333 331 331 332 325 322 319 317 320 322 319 318 313 312 309 308 309 310
357 357 356 328 321 318 325 336 325 335 349 343 338 335 336 336 339 339 339 340 338 333 325 329 324 320 317 314 312 316 317 317 316 314 316 315 307 307
361 352 322 317 317 320 321 326 324 347 349 343 339 336 338 339 340 338 336 338 334 331 331 329 324 321 317 313 311 310 309 313 315 314 315 314 313 315
341 349 344 337 325 333 330 328 346 351 349 343 340 340 340 339 337 336 331 328 327 326 330 329 326 322 315 314 312 310 312 309 312 314 314 312 313 315
346 356 354 350 351 341 343 340 345 349 346 344 340 338 336 336 332 331 327 325 321 320 321 325 326 323 319 314 311 311 310 312 315 315 311 309 310 313
339 349 350 350 343 345 343 340 342 343 345 343 339 337 333 329 326 325 326 323 321 320 320 321 320 317 315 316 318 310 312 313 314 313 312 309 308 310
348 346 347 349 345 343 342 340 340 342 344 340 336 334 331 329 325 324 324 323 321 320 320 321 318 314 310 307 313 315 311 313 310 309 312 309 306 307
338 344 345 346 345 342 341 341 341 340 339 337 333 332 331 328 326 325 324 322 320 320 319 319 317 314 308 307 309 314 309 311 310 310 310 310 310 312
327 329 331 334 337 342 342 340 340 339 338 335 333 331 330 328 326 325 323 317 318 319 316 315 315 317 316 314 308 307 310 306 311 312 310 307 304 303
331 332 333 333 333 334 336 339 338 337 336 334 331 331 331 330 326 324 322 319 319 318 316 316 313 314 313 310 307 307 311 315 308 309 311 311 304 297
335 335 331 330 330 331 331 331 332 331 332 331 331 332 330 327 325 323 321 319 315 315 315 313 311 313 311 310 308 308 310 310 310 310 308 311 310 309

GFSNE_sfc_thetae_033.txt.gz
Theta_e
348 348 342 338 338 337 334 332 327 321 324 329 329 334 335 337 336 334 331 337 336 335 333 333 335 336 337 338 338 338 339 339 339 339 339 339 338 339
351 348 346 341 337 337 336 332 331 326 320 331 330 333 337 336 339 333 333 337 338 336 335 334 334 336 337 337 337 337 337 337 337 337 336 336 336 335
351 349 346 343 336 335 335 335 330 329 322 325 331 332 333 335 335 336 339 337 334 335 335 334 334 334 335 336 335 335 335 335 335 334 333 332 331 331
352 349 348 348 339 339 340 332 331 332 326 322 333 335 332 331 332 331 336 338 335 336 334 333 332 331 332 332 332 333 333 332 330 329 327 327 328 329
354 352 350 346 341 341 339 338 333 333 333 328 331 333 334 336 335 336 335 335 337 340 334 332 331 330 329 327 327 326 326 324 324 322 322 323 325 326
355 355 353 349 346 343 340 337 337 334 334 330 328 329 334 336 334 334 333 338 337 340 336 333 332 332 330 327 326 325 322 319 318 317 318 320 321 322
353 356 356 353 347 345 344 338 335 336 333 332 329 328 327 332 335 333 331 334 336 336 330 328 328 328 329 330 330 331 324 323 320 317 317 316 316 317
355 354 357 351 347 339 339 339 340 333 336 332 331 330 331 329 334 335 334 330 327 335 333 331 329 327 328 328 330 329 325 327 321 318 317 316 315 314
356 356 355 358 349 352 338 337 337 335 334 337 332 331 330 333 334 333 334 331 327 330 331 328 332 329 332 332 328 326 324 324 321 318 317 314 312 312
358 357 356 355 355 353 351 344 344 341 339 336 337 335 335 335 337 337 335 333 333 333 331 323 330 328 327 323 325 325 322 320 319 316 314 312 309 308
357 358 358 357 346 334 352 348 344 344 334 329 331 331 331 333 339 340 334 330 326 329 332 327 328 328 323 320 321 323 320 317 316 314 313 311 308 307
356 356 338 350 336 328 349 351 346 344 343 341 335 330 331 333 332 340 337 331 327 326 332 327 328 325 316 320 318 318 316 314 312 311 311 311 309 306
355 354 355 331 325 322 326 354 349 348 342 342 341 339 337 337 336 340 339 337 330 327 331 333 327 320 313 312 314 312 311 309 308 307 307 306 307 308
357 358 356 326 321 321 323 333 327 331 348 343 342 338 336 334 337 340 340 338 338 334 329 329 321 317 313 309 308 309 310 310 309 308 308 309 307 306
361 351 333 322 316 321 321 325 324 344 349 346 342 341 339 338 337 335 338 338 333 329 325 325 320 317 313 308 307 305 303 304 307 307 307 308 306 308
337 348 343 335 333 336 331 326 336 348 351 350 347 346 342 337 334 336 333 334 330 324 326 325 321 317 311 310 308 303 304 302 304 304 307 305 306 307
336 348 350 353 351 352 343 342 336 339 346 349 350 347 340 336 334 336 334 332 329 323 322 323 321 317 312 310 306 305 303 303 304 304 304 302 303 305
328 342 344 348 351 352 351 351 346 338 341 346 347 346 339 336 335 334 333 329 327 324 322 322 318 313 311 311 312 303 303 303 305 308 304 301 302 304
331 338 339 341 347 350 350 349 349 346 345 343 346 346 341 338 333 331 329 327 324 322 322 320 317 313 306 303 306 313 305 305 305 302 302 303 301 302
323 325 326 328 329 330 332 333 335 342 345 344 344 345 342 337 333 328 326 325 325 322 319 318 316 314 310 307 303 306 307 305 302 300 302 303 303 308
323 321 322 325 326 327 329 331 331 332 333 336 338 342 343 335 330 329 327 320 319 320 316 316 317 317 311 306 301 300 304 306 306 302 302 301 298 298
325 325 326 327 329 328 326 326 329 329 329 333 334 333 330 328 326 325 323 321 320 320 317 314 315 313 307 303 300 300 300 305 307 309 310 308 299 294
324 324 326 326 326 325 324 325 327 326 326 324 325 327 327 326 326 325 323 321 320 316 312 307 307 305 305 304 303 301 300 302 302 300 302 309 309 308

GFSNE_sfc_thetae_036.txt.gz
Theta_e
344 345 337 335 335 335 330 329 324 320 320 326 326 331 332 333 332 335 329 336 336 335 332 332 333 335 337 337 338 338 338 339 339 338 338 338 337 336
347 343 342 340 336 334 333 328 327 323 319 326 328 330 332 337 335 334 329 335 336 334 332 331 332 333 335 336 337 337 337 337 336 337 337 335 334 332
349 346 343 342 339 334 333 332 328 325 321 322 328 330 331 331 332 333 330 329 329 334 333 332 331 332 334 335 334 335 335 334 334 335 334 334 331 330
350 348 346 346 340 335 332 331 330 327 323 320 322 331 329 331 331 333 332 334 333 334 332 331 330 330 330 330 330 330 329 330 331 331 330 328 328 328
351 350 349 346 344 341 333 334 331 329 327 322 322 330 328 330 327 329 329 332 334 337 332 330 330 329 328 326 326 324 322 323 324 324 324 323 325 326
352 352 351 349 347 344 339 335 334 331 328 327 324 328 328 331 330 328 328 332 331 336 337 334 333 332 330 326 325 324 320 319 318 318 318 319 321 322
352 354 353 352 347 345 345 340 334 333 329 329 325 324 326 329 330 329 328 330 334 334 333 330 329 328 330 330 331 330 324 321 318 316 314 314 315 317
352 352 353 349 346 339 338 339 340 336 333 332 331 328 329 328 330 332 331 325 326 333 334 333 328 326 329 329 330 328 324 322 320 317 315 314 314 314
353 353 353 354 348 352 338 335 336 333 336 335 333 332 331 332 331 330 333 331 331 331 334 332 330 330 332 330 327 325 323 321 320 318 316 315 313 311
355 354 353 354 353 351 352 344 343 344 338 336 336 336 336 336 334 333 334 334 331 330 333 328 328 331 330 330 326 325 322 320 319 317 315 313 309 307
356 356 356 355 343 333 351 350 347 345 340 330 331 329 327 326 330 333 331 329 329 330 331 330 325 326 325 325 325 324 321 318 316 316 315 312 308 306
356 357 338 348 334 328 346 351 349 350 347 347 339 333 327 329 326 335 335 330 329 325 330 328 324 324 319 321 321 324 321 316 314 313 313 311 307 303
354 355 356 329 324 322 325 354 351 352 349 348 347 343 341 339 335 338 340 336 331 330 331 332 327 321 321 315 317 318 319 313 312 311 308 307 306 306
357 359 357 328 320 319 323 330 327 330 352 352 347 344 344 341 340 340 341 341 340 337 333 335 329 325 323 311 312 313 313 310 309 308 306 305 305 305
360 350 332 322 317 320 319 323 322 342 349 350 350 349 346 347 345 341 340 341 340 339 335 336 329 330 326 316 311 309 308 308 309 307 305 306 307 304
330 341 338 331 324 333 333 330 332 340 345 347 350 353 353 348 344 341 337 337 335 334 333 334 331 322 316 316 315 307 304 303 304 304 305 304 303 304
331 342 342 343 347 350 352 352 348 340 337 341 344 348 350 350 344 342 337 336 333 332 328 325 324 324 322 313 310 310 305 303 304 302 303 301 302 302
324 332 335 338 341 343 348 349 350 344 344 343 343 344 345 346 346 341 337 334 333 334 329 324 320 316 313 313 317 310 304 302 302 304 301 300 299 303
325 323 324 327 328 328 330 329 328 330 333 333 335 339 341 343 340 340 337 334 333 334 332 323 320 321 314 309 309 310 305 303 303 303 302 301 300 301
319 318 319 319 321 322 322 322 325 327 328 329 330 331 333 334 333 333 334 336 334 333 330 324 324 321 315 311 304 307 305 304 303 301 301 301 302 308
319 321 321 324 324 324 323 323 324 323 322 325 328 332 329 326 324 324 328 321 325 331 325 320 320 316 312 311 305 302 306 305 306 303 300 301 298 297
320 321 322 323 323 322 322 321 322 321 320 320 320 321 324 321 322 323 322 321 320 318 317 317 315 313 309 307 301 300 302 305 306 308 308 306 300 296
325 327 326 323 323 324 323 324 322 322 320 320 319 320 322 324 323 322 321 320 317 315 315 315 313 310 306 305 302 300 299 302 303 303 303 309 309 309

GFSNE_sfc_thetae_039.txt.gz
Theta_e
341 342 335 333 334 333 327 327 322 318 319 325 324 329 330 332 333 333 332 335 337 335 332 332 333 335 337 338 338 338 338 338 339 338 338 338 337 335
345 341 341 338 333 333 332 327 325 322 319 323 326 327 329 333 334 333 332 334 336 335 333 331 332 333 334 335 336 336 336 337 337 336 336 336 335 331
347 344 341 340 338 334 331 330 326 323 320 321 325 327 328 328 332 334 332 328 328 333 333 331 330 330 332 333 334 334 334 334 334 335 336 334 331 330
346 346 346 345 339 336 332 329 328 326 323 320 321 327 326 329 330 330 333 331 327 330 331 330 329 328 329 329 329 330 329 329 330 331 333 332 329 328
349 348 348 345 343 340 335 331 329 329 325 321 322 324 329 327 327 328 329 330 330 334 330 329 329 328 327 326 326 324 322 322 323 325 326 327 326 327
352 351 351 349 347 345 342 338 333 329 326 324 322 324 326 328 327 325 324 327 330 333 335 333 332 332 330 326 326 325 320 318 318 320 321 320 321 323
350 351 352 351 346 346 347 344 336 334 331 329 328 322 325 326 326 326 327 329 328 331 331 332 332 332 332 330 332 331 324 321 318 318 317 315 316 318
350 350 351 348 346 339 338 340 343 340 337 333 334 330 329 328 331 329 327 322 323 332 331 331 334 332 333 330 331 328 325 322 320 318 316 314 314 315
350 351 351 353 347 351 340 336 335 334 339 344 336 337 333 333 331 328 328 328 327 328 332 329 331 332 334 332 327 326 324 322 320 318 317 315 314 313
353 352 351 351 351 349 350 348 345 346 342 340 345 347 343 341 334 331 331 332 332 333 331 327 329 330 333 332 326 326 323 321 319 318 316 313 311 308
354 354 354 353 342 332 349 349 349 348 340 331 332 332 331 327 332 334 329 328 327 330 332 331 329 329 327 330 330 325 321 318 317 317 316 313 309 306
353 354 336 347 333 328 346 350 348 350 352 349 345 335 331 336 324 334 338 331 329 330 334 329 331 327 323 324 328 326 324 316 314 314 314 313 308 305
351 352 354 330 324 323 325 353 350 352 350 350 352 350 348 346 345 338 336 337 334 333 336 334 332 330 329 321 320 325 325 319 320 315 310 309 306 306
354 357 355 327 319 319 321 328 326 328 350 352 352 351 350 349 346 346 343 337 340 339 343 336 333 331 328 319 317 316 322 323 324 319 317 309 305 306
357 348 330 320 314 317 317 320 319 335 342 345 347 350 353 355 354 350 346 345 340 340 341 340 336 334 331 327 321 316 318 318 316 319 313 310 307 304
331 340 335 328 325 332 333 329 331 336 340 343 346 349 352 352 352 352 346 344 340 339 341 341 338 336 330 330 326 319 321 313 316 313 313 307 306 305
332 341 341 341 341 341 344 347 347 341 336 338 340 341 341 343 343 347 347 347 342 340 338 341 340 337 335 331 323 322 312 309 313 313 309 304 303 305
331 335 334 336 335 335 335 329 330 330 329 329 329 330 331 331 332 334 338 340 337 338 337 339 337 331 328 323 329 316 313 311 309 309 308 304 301 302
329 326 322 320 319 319 320 320 321 322 322 322 323 325 326 327 328 330 330 329 329 330 332 336 336 327 318 315 312 318 312 308 306 306 305 302 303 303
320 318 320 324 325 321 319 319 321 322 321 320 321 324 327 326 323 322 322 321 319 322 325 331 333 328 323 318 308 308 309 308 307 305 301 301 303 307
317 318 318 319 320 320 320 321 321 320 319 318 318 317 317 322 322 322 322 313 314 316 312 311 312 315 316 314 308 306 307 305 308 306 302 301 299 298
323 323 325 324 321 321 321 321 323 321 320 318 317 317 318 319 320 321 319 317 316 314 313 314 315 314 312 308 306 305 305 305 306 308 309 306 300 296
312 314 316 314 313 316 324 326 326 325 320 320 322 321 319 323 323 321 319 317 316 315 313 313 312 311 309 307 305 303 304 304 302 302 303 308 309 309

GFSNE_sfc_thetae_042.txt.gz
Theta_e
348 349 344 341 338 338 336 335 335 328 329 335 335 338 338 340 344 344 343 338 337 336 333 332 333 335 338 339 338 338 338 339 339 339 339 338 338 335
350 348 348 346 342 339 339 335 333 333 329 333 336 337 338 337 339 343 341 339 336 335 333 331 332 333 335 336 336 336 336 337 337 337 337 337 337 334
351 350 350 348 346 344 339 338 335 331 330 334 332 338 339 338 339 342 340 341 340 332 333 332 330 331 332 333 333 333 334 335 335 336 336 337 335 332
350 350 350 350 348 347 343 340 337 335 333 333 335 335 337 339 339 338 339 338 338 334 330 330 329 329 329 329 329 329 329 329 331 332 334 336 334 331
352 351 350 351 350 349 346 343 339 337 334 331 333 333 335 336 336 335 338 339 339 336 330 328 328 328 327 325 325 323 321 322 324 326 328 330 331 329
354 353 353 352 351 352 349 347 345 341 337 334 334 333 335 338 335 335 334 334 336 338 336 334 333 331 329 325 325 325 320 318 318 320 322 323 324 325
353 354 355 353 347 348 352 351 348 345 344 339 337 335 333 334 333 338 333 336 338 338 338 337 338 338 337 331 334 331 325 322 318 318 318 318 318 319
351 353 354 348 347 339 338 340 348 348 346 343 342 341 342 340 338 336 334 333 331 339 335 334 338 336 338 339 334 330 326 324 320 318 317 316 315 316
353 353 353 354 348 354 342 335 336 334 339 351 346 345 344 347 345 339 336 335 335 340 336 333 339 335 338 337 329 328 326 324 321 320 318 316 314 313
354 355 354 354 355 353 354 354 353 351 346 344 348 351 353 354 351 346 343 341 338 339 338 331 338 335 338 339 328 327 325 324 320 318 317 314 312 310
355 356 355 355 342 332 352 352 353 354 342 332 334 334 331 328 335 348 340 332 330 334 340 334 336 335 335 336 338 326 324 321 318 318 317 314 310 309
354 356 336 348 333 327 347 352 350 353 354 354 352 338 332 339 328 336 342 339 337 334 342 333 336 335 331 337 339 340 334 319 316 315 316 314 309 316
351 353 356 328 324 323 325 352 350 351 350 352 354 354 354 352 351 350 344 339 339 339 347 341 338 336 332 333 333 336 334 331 325 317 313 312 308 312
353 355 355 326 319 318 321 326 324 328 349 350 351 351 353 354 355 353 350 348 343 345 350 344 337 336 333 331 329 326 331 332 327 324 322 315 309 307
355 347 332 324 315 317 317 320 318 333 338 340 343 347 350 353 356 355 357 356 351 348 343 344 344 341 337 333 332 331 324 327 327 326 324 320 316 309
332 341 334 330 325 332 333 332 332 337 341 342 344 347 350 348 345 348 346 345 342 342 349 349 343 341 338 338 336 332 325 323 325 326 323 321 316 313
337 343 343 344 345 344 345 347 347 342 341 342 340 340 339 339 338 339 337 334 330 331 334 338 344 345 342 339 335 333 331 325 325 324 320 315 314 312
337 340 338 338 337 335 333 335 336 331 332 332 333 332 330 330 330 332 332 328 325 325 325 326 326 328 330 336 336 335 335 326 323 321 320 314 310 309
332 328 326 326 327 329 330 330 330 331 331 331 330 329 328 330 328 324 325 325 320 319 318 318 316 320 322 322 315 312 323 319 317 316 316 316 311 307
326 325 326 329 329 329 329 330 330 331 331 330 329 328 327 327 327 326 325 323 322 319 317 316 313 312 312 312 305 307 308 312 309 306 303 304 306 308
326 327 327 327 327 328 328 329 328 327 327 326 328 328 327 327 326 324 322 313 314 318 314 314 315 315 318 316 306 304 307 307 310 308 306 304 303 304
316 319 317 316 316 317 320 325 326 326 327 328 330 327 326 326 326 323 322 318 318 317 318 321 320 318 316 311 306 305 305 308 308 309 309 308 307 303
309 309 310 309 309 309 310 312 315 323 328 327 327 327 327 325 329 329 326 321 319 316 318 319 319 318 317 314 309 310 309 305 306 307 307 308 309 309

GFSNE_sfc_thetae_045.txt.gz
Theta_e
360 360 357 354 351 348 345 344 340 334 335 344 343 351 349 349 351 353 352 345 339 337 334 333 334 336 338 339 340 340 341 341 340 340 340 340 338 339
358 359 359 355 355 352 349 347 345 340 336 344 344 348 350 346 349 349 351 346 340 336 335 333 332 334 335 337 337 337 338 338 338 338 338 338 339 339
362 360 360 362 356 354 353 351 347 344 339 341 345 348 350 351 350 350 349 350 347 336 334 333 331 331 333 334 334 334 335 335 336 337 338 338 338 338
360 361 359 357 360 360 356 356 352 352 344 346 349 345 349 353 353 352 349 346 347 341 334 331 331 330 329 330 330 330 329 330 331 332 335 336 337 336
360 361 361 361 359 357 358 356 355 354 352 346 345 347 346 346 348 351 349 351 348 342 333 330 329 329 328 326 326 324 322 322 324 326 328 331 334 334
362 362 362 362 361 361 360 360 359 356 356 351 348 348 349 354 349 344 343 347 345 345 342 337 336 332 329 326 326 325 321 318 319 320 322 324 328 329
362 363 363 360 350 353 359 363 361 356 353 350 348 348 347 347 347 348 346 347 351 350 347 347 347 345 342 331 334 331 326 322 319 318 318 319 321 323
360 362 363 354 352 340 338 340 353 362 356 353 351 351 359 356 355 352 350 348 346 356 351 346 347 345 346 346 338 331 327 324 321 319 318 317 318 319
362 362 361 359 354 361 345 336 337 335 340 358 358 359 360 361 362 358 359 356 352 355 354 348 351 349 349 347 332 329 328 325 323 321 319 318 317 316
363 363 364 363 362 359 361 360 361 362 358 353 355 359 364 365 367 362 359 354 352 354 357 343 350 349 353 352 333 328 327 326 323 320 318 316 314 313
363 363 363 363 346 334 358 358 360 361 347 335 337 336 331 328 335 348 345 345 343 346 357 347 348 349 351 350 351 328 324 323 322 321 319 316 312 310
362 363 338 351 335 328 356 357 357 359 362 364 365 350 339 345 329 340 346 341 341 342 355 350 346 343 339 349 349 347 347 321 319 319 318 316 311 322
354 356 358 329 325 323 325 360 358 358 356 359 358 358 360 360 362 362 353 347 346 344 353 349 345 346 344 341 346 347 346 345 331 327 315 314 309 320
358 360 361 328 320 318 323 329 324 328 351 351 352 352 352 353 357 358 357 354 351 349 354 356 348 345 343 338 338 343 343 339 339 332 333 317 310 314
360 350 331 323 315 322 319 321 319 334 339 341 344 345 350 355 357 356 358 355 354 352 349 353 353 348 346 341 337 337 336 339 336 336 329 323 316 319
336 349 342 336 330 337 337 332 332 336 338 342 345 349 351 350 346 344 341 340 338 337 342 343 344 343 337 336 335 333 337 334 332 332 331 326 322 321
344 352 351 351 349 350 348 348 350 345 342 345 346 344 342 340 338 339 337 336 333 331 331 332 336 332 329 331 330 333 333 335 336 333 328 323 322 319
341 347 345 344 343 342 340 340 341 338 345 343 340 338 336 336 335 335 335 333 329 327 328 328 327 319 319 325 318 308 310 320 329 331 327 320 313 313
341 338 332 331 333 333 335 338 340 340 341 338 338 337 336 334 332 333 333 331 329 328 328 328 323 317 311 310 318 312 309 317 316 317 319 315 311 311
336 333 332 333 334 338 339 338 339 338 336 335 336 337 335 333 332 333 332 325 322 326 328 327 323 317 314 310 308 309 306 312 310 306 306 308 310 313
331 329 331 332 330 330 329 330 331 331 330 330 330 335 334 332 332 330 327 314 317 325 323 322 324 316 326 323 311 309 309 307 309 309 311 310 308 307
321 323 321 321 319 317 318 320 322 326 329 330 331 332 332 333 332 331 331 326 324 323 324 326 327 329 324 318 315 312 312 310 310 309 309 311 312 306
315 314 314 313 313 313 314 313 314 315 317 318 319 321 328 330 331 331 330 329 328 326 326 325 327 327 321 319 315 314 309 309 311 310 306 308 309 310

GFSNE_sfc_thetae_048.txt.gz
Theta_e
362 363 358 352 353 351 349 346 341 336 338 347 342 353 350 350 353 354 355 346 341 338 335 334 335 337 339 340 342 342 343 344 343 343 342 342 341 340
358 361 363 354 354 354 352 350 347 343 337 343 345 349 353 351 351 354 353 349 342 339 336 333 333 334 336 337 338 338 338 339 339 339 339 340 341 341
364 362 363 365 357 353 353 352 350 348 342 343 345 351 357 357 356 357 355 355 351 338 337 335 332 332 333 334 334 335 335 335 336 337 338 339 339 340
363 363 362 359 363 364 356 361 357 358 347 353 355 348 357 361 358 357 354 351 350 343 336 334 332 331 330 330 330 330 330 330 332 333 335 336 338 338
363 363 363 364 363 360 360 357 356 357 358 353 352 352 352 354 357 362 359 360 354 346 336 333 331 331 329 328 326 325 323 323 325 326 328 331 334 336
364 364 364 365 365 366 364 364 363 360 360 354 351 349 348 357 354 351 350 354 353 354 349 341 339 336 331 328 327 326 321 319 319 321 322 324 328 331
364 365 366 362 352 355 363 370 371 362 355 351 349 349 349 350 354 354 354 355 359 359 357 358 357 356 352 332 336 332 327 323 319 318 319 319 321 324
362 364 366 357 354 342 340 341 351 364 366 357 353 352 366 361 358 355 354 352 351 364 364 359 362 360 360 359 343 334 328 325 323 320 319 317 318 320
364 362 360 357 356 364 345 339 340 337 339 357 358 360 364 365 369 367 365 363 360 363 364 356 360 359 361 359 336 331 328 325 323 322 320 317 317 317
364 364 366 366 363 360 363 361 362 364 362 357 360 361 362 365 369 369 368 364 363 361 363 352 358 357 361 362 339 333 328 324 322 321 320 317 315 313
363 365 367 367 349 334 361 360 361 362 347 333 336 337 334 332 340 358 352 352 350 357 363 356 358 358 359 359 358 338 327 324 320 320 320 317 313 311
366 369 340 352 335 327 361 359 358 359 362 365 370 348 338 353 331 352 357 349 350 347 361 353 354 353 345 352 351 350 351 326 318 317 318 317 312 320
353 354 357 329 326 324 324 360 358 358 358 366 366 365 367 366 365 365 354 349 350 351 358 358 352 350 347 345 346 348 349 348 349 338 313 313 310 318
356 356 363 326 319 319 326 331 325 330 358 359 358 354 355 358 360 362 363 363 363 361 364 361 350 345 340 336 336 340 340 342 343 344 341 332 311 311
360 349 327 323 317 324 319 322 319 353 347 342 345 347 352 352 359 362 365 367 361 356 349 351 343 343 336 331 330 333 334 335 336 337 334 338 329 318
340 353 348 336 325 335 349 346 350 345 343 345 344 348 355 356 355 354 345 344 341 340 347 346 344 340 332 331 330 330 324 321 326 329 330 333 334 324
352 360 358 358 358 358 357 355 352 346 344 343 348 351 354 351 345 344 342 341 337 337 336 338 342 341 334 332 327 322 315 318 322 321 325 327 329 321
347 356 355 355 352 351 348 345 346 343 350 349 349 348 343 341 340 341 340 338 337 336 335 335 334 330 328 329 324 318 311 312 315 317 319 316 311 314
353 350 347 345 340 339 340 341 342 345 348 343 343 342 341 340 337 338 338 338 336 334 333 335 332 327 319 319 325 311 308 314 312 311 313 311 308 309
342 338 336 336 337 337 339 340 343 343 341 339 339 340 341 340 338 337 336 335 333 331 332 334 332 328 321 320 317 316 307 313 312 311 310 311 311 312
345 343 342 339 337 333 334 335 336 336 336 334 336 338 336 334 334 333 332 318 321 331 330 330 332 319 330 332 322 316 316 308 311 317 314 310 308 309
334 332 332 329 327 330 332 331 333 333 333 331 331 333 335 335 333 333 332 331 329 329 330 333 336 332 329 326 323 320 317 316 314 310 309 311 314 307
326 328 327 327 327 328 329 328 325 327 328 328 330 332 333 332 335 333 332 332 331 328 329 331 331 330 329 325 320 325 321 319 319 319 317 309 310 313

GFSNE_sfc_thetae_051.txt.gz
Theta_e
364 364 358 351 351 349 348 346 342 337 339 350 342 355 349 349 354 355 358 348 342 340 337 335 336 337 339 341 342 343 344 345 346 346 345 345 345 343
356 370 368 356 355 353 351 349 347 343 338 343 345 352 354 350 354 355 354 349 343 340 337 335 334 335 336 337 338 338 339 340 341 341 341 341 341 342
366 364 366 371 356 352 352 351 349 348 342 344 346 356 367 365 362 362 357 360 353 339 337 336 334 333 334 334 334 334 335 336 337 338 339 339 339 340
363 367 361 359 369 370 359 369 359 362 349 356 355 353 363 366 366 368 356 355 356 347 337 335 333 332 332 331 330 330 329 330 331 333 335 337 338 338
364 366 365 367 369 362 366 358 355 359 359 354 354 356 356 357 360 367 367 365 360 350 341 334 333 332 331 329 327 325 323 322 324 326 328 330 333 335
367 367 367 367 370 371 366 371 366 362 359 354 353 354 355 363 358 354 355 358 359 359 353 347 343 336 332 329 328 328 322 319 319 320 322 324 327 330
367 367 367 364 352 359 363 368 369 363 356 353 351 351 350 352 356 357 355 359 362 361 359 364 364 365 356 334 337 334 327 323 320 319 320 319 321 323
367 369 370 357 354 343 342 342 353 364 368 357 353 352 361 360 358 356 355 353 353 365 367 364 365 362 365 364 348 334 329 325 323 320 318 318 318 319
368 369 365 357 359 368 347 341 342 338 341 360 359 360 360 365 368 365 360 362 362 364 365 358 364 361 365 362 343 336 328 326 323 322 320 318 317 316
368 368 370 368 369 365 368 366 365 367 364 357 361 364 367 370 370 366 369 368 366 363 370 355 361 361 364 365 342 334 331 325 323 321 319 317 314 313
366 367 367 369 351 336 364 363 365 366 347 333 334 336 335 331 338 356 357 356 354 358 365 360 360 359 359 355 355 337 330 324 323 323 319 317 314 312
366 369 342 354 338 328 363 365 363 365 365 365 368 356 340 352 332 351 358 353 353 350 367 356 356 355 346 352 352 352 349 330 320 318 318 316 313 326
354 353 356 331 327 325 327 364 360 361 356 364 365 368 367 370 371 373 368 360 356 351 357 362 354 349 344 342 342 343 342 342 343 339 323 313 310 315
355 350 353 325 320 321 326 331 325 330 357 358 359 360 361 361 360 364 366 362 367 361 367 366 347 343 338 334 333 338 339 338 333 334 333 326 320 314
358 341 327 323 319 323 319 326 323 355 357 359 358 358 356 357 362 359 364 372 370 369 357 355 346 346 338 332 331 332 329 328 329 328 329 327 325 330
343 353 347 334 328 339 348 335 357 361 361 355 348 350 355 354 354 361 357 351 344 343 354 350 349 345 335 333 331 329 327 320 325 322 320 321 322 329
352 359 357 358 359 362 362 365 366 358 351 348 349 351 349 357 358 356 347 344 341 340 340 343 350 348 339 336 328 327 321 320 319 317 317 315 313 315
351 358 358 359 358 360 358 355 352 346 349 350 351 353 352 350 346 345 344 341 339 340 339 338 339 336 334 323 323 323 320 318 317 316 315 312 309 312
359 359 360 358 353 351 349 348 347 349 352 350 348 348 346 344 340 341 341 341 340 340 337 337 337 333 326 322 326 317 316 316 315 313 313 311 308 309
357 351 346 343 340 339 340 341 344 347 346 347 345 343 342 342 341 340 340 339 337 336 334 336 336 334 328 325 324 325 308 317 315 313 311 312 311 312
346 346 345 341 341 342 341 341 342 339 339 341 339 339 339 338 337 336 335 319 325 333 332 334 336 325 333 334 327 326 320 307 313 317 314 311 310 311
353 345 342 339 337 338 338 338 337 334 335 336 335 337 336 335 334 334 334 333 333 332 332 332 337 337 334 330 326 326 323 323 311 310 310 311 315 309
340 339 335 334 334 334 334 332 331 333 332 331 331 332 334 331 334 333 333 334 334 333 332 330 330 333 330 328 319 325 324 322 321 320 319 309 311 312

GFSNE_sfc_thetae_054.txt.gz
Theta_e
364 366 363 358 357 354 355 351 347 338 341 349 346 353 351 351 357 351 352 347 341 339 337 336 337 338 339 340 341 342 343 344 344 344 345 346 348 349
362 363 364 359 360 359 357 357 353 346 340 348 351 355 354 350 357 355 355 351 343 340 337 335 335 336 336 337 337 338 339 340 341 342 342 343 343 344
366 366 364 364 362 361 360 356 354 354 346 349 355 355 360 360 355 358 360 356 354 339 337 336 334 334 336 335 334 334 335 336 336 338 339 340 340 340
363 363 364 362 365 364 361 361 362 364 356 350 354 353 354 357 361 362 359 354 354 350 337 335 333 333 333 333 332 331 330 330 331 333 335 337 338 338
362 363 362 365 364 363 364 358 357 359 357 354 352 359 359 359 356 363 361 358 357 352 343 337 333 332 331 330 329 326 323 323 324 326 328 330 333 335
365 363 365 364 363 365 363 363 363 361 358 357 353 352 355 357 360 356 356 360 356 359 354 346 342 338 333 329 328 328 322 320 319 320 322 324 327 329
363 364 365 363 354 358 363 364 363 361 358 356 353 353 351 354 352 355 353 356 355 357 353 365 364 363 355 335 336 335 329 324 321 319 318 318 320 322
361 362 366 354 352 343 341 343 352 360 357 358 357 353 353 355 356 353 352 350 347 362 363 359 364 361 363 361 344 334 330 327 324 321 318 317 317 319
364 362 362 361 354 363 345 339 340 338 341 355 352 352 352 355 357 357 356 355 355 362 360 355 362 359 363 363 342 335 331 327 324 322 320 318 317 316
362 362 362 362 362 363 363 362 359 359 356 350 351 355 359 362 363 361 360 359 359 361 362 351 358 358 362 359 342 335 329 326 324 323 320 316 314 312
357 359 363 365 349 339 356 356 357 359 348 337 341 340 339 336 341 349 348 349 352 355 361 356 357 355 355 354 354 332 327 321 321 319 320 317 313 310
358 360 339 350 337 330 355 359 356 357 360 361 362 356 339 346 329 342 351 351 352 351 358 353 354 353 343 348 342 342 340 325 321 319 317 316 314 323
355 356 359 332 327 324 327 357 354 357 356 361 359 361 365 366 368 365 364 360 355 353 357 356 352 345 341 336 338 337 335 332 328 327 319 314 313 314
355 357 355 327 323 324 326 330 326 329 355 355 355 355 358 363 363 362 363 361 363 360 361 361 351 342 335 331 329 333 333 329 326 323 322 317 315 314
360 345 326 323 318 319 320 326 323 347 353 354 355 357 363 360 358 360 363 361 361 362 361 363 346 342 337 332 328 328 323 323 324 320 317 316 316 315
340 350 343 341 330 338 339 330 349 357 357 357 358 359 355 355 354 356 354 357 352 346 357 347 346 341 336 333 329 327 322 317 320 317 315 316 313 313
348 356 356 354 353 358 362 362 357 360 358 356 352 350 351 351 352 357 357 352 343 342 342 348 347 342 334 331 325 324 319 317 317 315 312 311 310 312
348 354 354 354 354 355 358 358 357 349 350 349 350 349 349 350 351 351 347 342 340 341 342 339 338 339 330 320 322 321 318 316 316 314 311 309 307 311
353 352 355 358 361 358 356 351 349 351 350 350 350 349 348 346 342 343 343 344 341 340 339 338 336 335 327 323 316 313 316 316 314 312 311 309 308 310
355 356 357 354 351 348 346 345 345 348 347 348 341 342 342 344 344 342 340 338 335 334 333 335 335 334 328 325 323 318 308 316 314 314 312 313 313 313
348 346 344 343 340 342 341 344 343 339 336 341 339 337 339 339 337 338 335 321 324 333 331 331 334 324 334 333 327 321 315 307 314 315 314 310 307 309
342 341 341 340 340 339 342 341 336 333 337 339 337 335 336 337 335 333 333 332 331 332 332 334 335 334 334 330 326 324 320 315 310 311 311 311 312 307
338 336 336 336 337 337 337 336 334 334 335 334 334 334 335 332 332 331 329 329 331 329 331 331 332 333 330 331 324 321 322 321 319 314 313 310 310 310

GFSNE_sfc_thetae_057.txt.gz
Theta_e
348 347 350 348 347 346 340 336 334 327 328 338 339 343 343 344 348 347 343 344 341 339 336 335 336 338 340 341 341 342 342 343 344 344 344 345 347 349
353 351 349 349 347 351 344 343 340 334 329 337 338 344 346 346 349 345 344 347 344 339 337 335 335 336 337 338 338 338 339 339 340 341 341 341 343 345
353 350 351 351 349 350 354 349 342 341 334 337 344 345 345 346 348 347 347 347 347 339 338 336 335 335 335 336 336 336 336 336 336 337 339 340 341 342
352 351 350 356 351 349 351 349 349 350 344 338 342 343 345 348 348 348 353 356 351 348 340 336 334 332 332 332 333 332 330 330 332 333 334 336 338 339
353 353 352 350 351 353 350 349 348 349 349 345 343 348 351 351 349 348 353 355 355 350 341 338 336 334 331 328 327 326 324 322 324 326 328 330 332 335
356 354 355 354 352 352 354 352 352 350 348 347 345 345 346 350 349 348 345 349 349 356 351 344 346 343 335 329 328 327 323 320 319 319 321 322 324 328
352 355 355 355 352 352 356 354 354 351 350 349 347 346 344 345 344 348 345 344 346 348 347 358 358 359 357 344 339 336 329 325 321 319 318 317 317 319
354 353 356 352 350 343 343 345 353 353 350 349 347 346 344 345 347 345 344 345 341 352 356 356 357 356 359 359 344 336 330 327 324 321 319 318 317 317
355 355 354 358 350 355 343 338 338 337 340 349 345 346 346 346 347 346 347 348 348 355 355 351 354 353 357 359 343 332 325 323 321 319 319 318 316 315
356 356 355 355 352 351 352 353 349 348 346 345 345 349 351 352 352 353 353 353 355 351 354 346 351 351 356 354 336 328 323 321 320 319 317 315 311 311
353 354 355 355 345 337 349 350 351 354 347 335 337 336 335 334 341 347 348 350 343 348 354 350 350 349 351 346 336 328 323 320 318 317 317 313 311 311
348 349 337 349 338 333 348 349 345 347 348 350 350 340 333 338 330 340 348 342 343 347 352 349 350 348 335 338 333 332 329 320 317 315 314 313 309 315
346 347 351 329 323 323 325 348 349 351 347 351 353 352 352 357 357 348 348 349 346 349 351 352 347 339 333 330 329 329 327 322 320 318 313 310 308 309
348 350 349 332 324 322 325 328 325 329 348 348 347 347 348 350 356 357 355 356 359 357 357 352 346 334 328 324 323 325 324 319 318 315 314 313 311 310
354 346 333 326 320 322 322 324 322 336 344 344 345 347 351 355 352 351 355 358 355 355 358 354 345 334 329 325 323 320 316 316 316 313 312 313 312 312
339 339 335 334 332 337 329 322 334 340 343 345 348 350 348 347 347 349 350 349 346 339 344 347 338 333 328 325 322 318 314 312 312 310 309 309 311 312
341 349 343 341 343 344 348 339 337 346 348 351 351 349 347 348 347 350 351 347 338 332 330 337 328 325 322 324 318 315 312 310 309 308 307 306 310 310
339 347 347 348 348 347 347 353 349 346 353 350 348 347 346 345 346 347 345 332 329 329 331 328 329 325 320 317 320 315 311 310 309 307 306 304 305 311
345 348 348 348 349 347 347 350 350 350 349 347 344 343 345 346 342 334 334 332 331 328 328 328 327 325 320 317 316 313 312 310 309 306 306 304 303 305
346 345 346 344 343 344 346 345 344 345 344 343 339 337 335 337 333 332 328 327 325 324 323 325 325 323 320 318 317 314 305 311 309 307 305 306 307 311
342 339 339 339 338 338 337 337 337 336 336 334 332 331 332 329 329 328 326 318 319 323 321 322 326 323 324 324 318 314 311 307 312 309 306 304 302 302
339 337 337 337 337 336 336 335 333 333 333 332 331 330 328 328 328 327 325 324 324 326 327 326 327 325 323 323 320 317 314 309 309 310 312 312 306 302
337 337 334 334 334 334 331 331 331 330 329 328 326 325 326 324 325 325 324 324 322 321 320 321 323 324 323 323 320 318 320 315 311 310 308 311 311 310

GFSNE_sfc_thetae_060.txt.gz
Theta_e
346 343 345 345 343 343 338 332 330 324 325 334 337 339 340 340 344 344 345 343 342 340 337 336 336 339 340 341 342 342 343 343 343 344 344 345 347 349
349 348 344 345 344 347 345 339 336 330 326 333 335 340 345 344 345 345 343 344 342 339 338 336 336 337 338 338 339 339 339 340 340 340 341 341 341 343
348 347 347 347 345 345 348 347 343 337 331 334 337 343 344 343 344 345 347 343 344 340 339 337 335 335 336 336 336 336 337 337 337 338 339 340 340 341
348 349 348 353 348 346 346 345 344 344 339 336 337 340 342 348 348 348 352 354 352 348 339 336 334 333 333 332 331 331 330 330 331 332 334 336 337 338
349 349 348 347 348 349 347 346 346 347 345 342 343 344 347 347 346 346 347 351 354 350 342 338 336 335 334 329 327 324 321 321 322 324 325 327 329 332
350 350 351 350 347 347 349 349 349 347 345 342 341 342 344 347 346 345 344 344 345 353 349 343 344 344 342 336 332 329 322 319 318 318 319 320 322 323
350 351 352 352 348 347 351 349 348 347 346 345 343 343 343 344 343 344 342 342 345 348 347 356 355 357 356 347 348 336 327 323 320 319 318 317 317 318
349 349 350 349 347 341 341 343 349 349 347 346 346 345 345 342 342 342 340 340 340 350 352 353 354 354 355 357 331 326 323 322 320 319 318 317 316 316
351 351 351 355 348 352 341 337 337 338 342 350 347 344 342 344 343 341 342 342 343 351 354 351 351 351 354 352 326 324 321 320 318 317 315 313 312 311
353 354 352 352 350 349 350 349 349 347 343 341 343 347 348 349 347 349 346 346 352 357 352 343 349 351 353 338 325 323 320 318 317 316 314 312 309 308
349 352 353 353 341 334 349 348 348 350 345 331 333 332 331 329 336 346 346 346 346 343 350 349 349 351 347 336 330 322 319 315 315 314 314 311 308 308
348 349 335 347 333 329 346 348 345 346 345 344 347 339 331 338 330 340 347 344 344 344 349 350 350 342 332 336 330 326 323 316 313 311 312 310 308 310
345 345 348 328 324 323 325 349 347 348 344 346 347 349 350 351 352 345 341 345 341 344 349 350 349 338 332 329 327 324 318 316 315 313 310 309 307 308
348 346 346 326 320 319 321 326 323 324 339 344 345 347 346 346 348 352 354 352 355 356 356 351 345 336 329 322 322 323 319 314 312 310 310 309 308 309
354 343 330 321 319 322 322 323 320 330 337 340 344 346 345 349 353 352 352 354 356 355 355 351 348 333 328 323 322 318 314 313 310 308 307 307 309 310
339 345 336 332 328 334 331 326 327 333 337 340 342 345 346 347 349 349 349 346 346 344 339 343 343 332 326 324 321 317 313 312 309 307 306 305 307 308
337 346 337 336 339 340 341 340 331 333 336 339 342 345 347 349 349 348 345 344 344 335 329 329 320 322 321 323 317 314 311 310 308 306 304 303 304 307
333 344 345 344 343 345 342 344 340 336 342 345 348 350 347 343 343 342 344 340 332 329 329 327 323 322 321 319 320 314 310 309 308 306 304 302 301 304
348 345 346 346 347 347 345 346 347 347 346 349 349 343 344 340 339 340 333 329 328 326 325 325 324 322 319 317 317 315 313 309 308 305 304 303 301 303
346 346 346 346 346 346 344 343 345 344 343 341 340 340 339 336 330 328 328 326 324 323 322 323 323 321 319 317 316 315 308 310 308 306 304 304 305 310
343 344 344 342 341 339 337 337 336 335 336 335 334 334 334 332 329 328 325 317 319 324 320 321 324 321 323 322 317 315 313 307 310 308 305 303 302 301
344 343 341 339 336 335 334 333 332 332 333 333 333 332 333 331 328 327 327 325 323 323 321 322 323 323 321 320 317 316 315 311 309 309 311 310 304 301
339 338 335 334 333 332 330 332 330 331 331 330 328 328 328 327 327 324 323 321 319 319 319 318 320 320 319 319 317 321 319 314 309 308 310 312 311 311

GFSNE_sfc_thetae_063.txt.gz
Theta_e
343 341 342 342 342 340 337 330 327 322 324 330 334 338 340 337 341 340 340 343 342 340 338 337 337 338 340 341 342 342 342 343 344 344 345 345 347 349
346 344 342 342 342 343 342 336 333 328 325 329 333 336 344 345 346 345 345 345 342 339 338 336 336 337 338 339 339 339 340 340 340 341 341 341 343 344
344 345 344 344 344 343 344 344 340 334 330 334 335 342 342 341 346 347 349 347 346 341 340 338 336 335 336 337 336 336 336 337 336 338 339 340 340 341
345 344 345 348 345 344 343 343 341 340 337 334 336 340 342 346 346 347 349 352 351 347 340 337 334 333 332 332 331 329 328 328 328 330 331 332 334 335
347 345 345 346 345 345 344 344 344 345 341 339 342 342 344 344 346 346 346 347 350 347 341 341 339 337 336 332 328 325 320 319 320 321 323 324 325 327
347 347 348 347 345 344 345 346 345 344 343 341 339 339 341 345 344 343 345 344 345 350 349 344 342 343 342 335 331 327 320 317 317 317 317 318 319 320
347 348 349 349 346 344 347 345 345 343 342 341 340 340 341 342 343 342 341 341 342 346 347 351 352 352 353 338 331 327 322 319 317 316 315 314 314 315
346 346 348 347 345 339 338 340 346 345 342 342 342 342 342 342 341 340 338 337 337 347 351 351 352 350 353 330 327 324 321 319 317 316 314 313 313 313
348 347 347 352 345 349 341 336 335 335 339 348 345 345 343 342 340 339 339 339 339 348 352 351 350 348 342 327 324 322 319 318 316 315 314 312 310 310
349 349 348 348 348 348 349 348 347 346 342 341 345 350 349 349 344 345 344 342 345 352 355 344 347 349 335 325 322 321 318 316 315 314 313 310 308 307
348 349 351 350 340 332 347 345 346 347 341 330 332 332 329 328 333 343 341 340 341 348 349 349 347 350 340 328 322 319 316 314 313 313 313 310 307 307
349 347 333 344 331 327 343 346 345 347 346 344 342 335 328 335 327 340 345 344 342 342 348 346 347 344 335 334 326 322 318 314 311 310 311 309 307 308
347 347 348 327 323 322 323 349 346 347 343 342 342 343 345 347 348 341 344 347 343 343 347 351 349 341 335 329 326 321 316 313 311 310 309 307 307 308
347 347 346 323 319 319 321 326 324 325 339 340 340 342 342 345 348 349 352 347 350 350 351 351 347 340 330 323 322 321 317 313 310 308 307 307 307 308
351 343 329 320 316 319 319 323 321 330 336 333 337 340 343 347 346 347 353 354 354 354 355 352 351 337 331 327 322 319 315 313 310 307 306 306 305 307
338 343 337 330 327 332 330 326 330 332 334 336 339 342 341 342 344 347 349 349 346 343 335 331 349 337 328 324 322 317 314 313 310 307 305 304 305 309
339 345 347 338 342 339 338 339 333 330 332 335 336 337 339 341 344 347 348 346 344 336 331 326 321 324 323 323 319 317 313 311 309 306 304 303 303 306
335 346 344 346 346 345 344 342 340 334 335 337 337 339 340 344 345 342 344 344 341 335 330 327 321 321 322 321 322 316 311 310 309 307 304 303 302 303
346 347 346 346 345 345 345 344 344 343 342 342 342 344 343 344 338 339 338 333 329 326 325 324 324 324 318 317 320 316 315 310 308 307 305 303 302 303
347 349 346 345 345 345 345 345 346 347 346 345 345 345 343 341 334 335 334 330 327 323 323 324 324 324 320 318 317 317 308 312 309 307 305 304 305 309
338 346 348 346 347 347 347 347 347 346 347 345 343 342 339 335 332 330 328 319 320 324 323 323 324 322 324 321 317 316 316 306 310 310 306 304 303 302
344 342 345 345 345 346 342 342 340 337 339 337 331 330 330 329 328 326 326 324 324 324 324 324 324 322 320 320 317 316 316 315 309 310 311 311 306 303
339 341 337 335 335 335 334 334 334 333 331 329 328 328 327 326 326 326 325 327 324 322 321 318 318 319 319 319 316 316 316 317 313 310 310 311 311 311

GFSNE_sfc_thetae_066.txt.gz
Theta_e
349 349 349 349 348 346 345 339 338 334 335 341 344 349 354 353 352 354 355 346 342 341 338 337 338 339 341 342 342 342 343 343 343 343 345 346 348 349
351 350 348 348 349 347 350 343 341 338 337 339 343 346 352 353 355 358 357 348 345 341 340 338 337 339 339 340 340 340 340 340 340 340 340 341 342 344
350 351 351 352 350 350 351 351 348 342 341 346 343 351 354 356 358 359 360 360 359 344 340 337 335 335 337 337 336 335 335 334 334 334 335 336 337 338
350 349 350 351 351 352 350 351 350 349 346 345 347 351 353 357 356 358 357 358 358 347 339 336 335 335 335 333 330 327 325 326 327 328 329 330 330 331
351 350 351 351 352 352 352 351 351 351 349 347 350 352 352 353 356 358 358 359 356 348 342 341 339 338 334 329 325 322 318 319 320 321 321 322 322 324
353 352 353 352 352 353 351 352 353 352 352 350 348 348 350 355 353 352 353 355 353 356 352 345 343 344 333 326 324 321 317 315 315 315 316 316 317 318
353 353 353 352 346 348 354 354 353 351 351 349 349 349 350 351 352 354 350 350 353 355 356 359 360 361 339 329 329 325 320 318 315 314 313 312 313 314
351 352 354 348 346 339 337 339 350 354 353 351 351 349 353 352 353 351 349 349 348 357 359 357 361 358 340 336 326 322 320 318 316 315 313 312 312 312
352 353 351 352 348 354 342 335 336 334 339 355 352 353 354 357 354 352 350 348 349 355 357 355 360 352 337 328 323 320 318 317 316 314 313 312 310 310
352 352 352 353 353 353 353 354 355 355 350 346 350 355 358 359 356 356 353 352 353 355 359 354 355 353 335 328 322 320 318 316 315 314 313 310 308 307
352 353 353 353 340 332 353 353 353 354 342 331 333 333 331 329 338 351 348 348 349 352 356 355 360 352 335 327 326 319 316 314 312 313 312 310 307 307
350 352 334 347 331 326 349 352 350 352 354 355 352 341 332 340 326 344 350 349 351 346 357 355 355 354 342 336 328 327 327 314 312 310 310 309 306 316
346 348 352 326 323 320 324 352 349 351 348 352 353 352 352 353 355 346 349 353 353 350 355 358 354 349 345 337 335 332 328 325 323 319 309 307 306 309
345 348 348 323 318 317 320 326 323 325 349 350 350 349 350 352 353 355 357 354 358 359 356 359 352 349 344 336 338 333 330 326 323 321 318 311 308 308
349 341 329 320 317 320 318 321 320 336 343 344 344 346 349 352 354 354 356 359 358 356 354 356 355 352 345 346 341 333 330 325 322 320 319 316 314 315
336 343 338 332 329 335 334 329 334 340 342 343 344 347 350 349 349 352 351 355 354 356 348 345 352 350 343 344 339 334 329 328 322 321 318 317 317 316
339 347 348 348 347 347 344 345 343 340 339 341 343 345 346 348 349 350 353 355 352 351 345 337 335 341 341 342 335 334 328 325 323 321 318 318 316 315
335 344 344 345 345 346 346 349 347 339 343 345 343 345 345 346 348 351 352 351 349 350 348 338 330 330 330 330 329 332 326 324 322 319 317 318 318 316
345 345 345 346 345 346 348 348 349 348 348 346 346 346 346 348 344 350 348 348 348 349 344 338 335 334 330 330 331 320 329 323 320 319 318 316 318 318
346 347 348 348 348 347 347 347 350 351 348 347 347 349 347 346 347 347 348 347 346 342 336 334 334 333 333 332 330 329 312 325 322 323 320 317 317 310
338 346 350 352 349 347 348 350 350 350 349 348 348 349 349 349 348 347 343 322 329 335 333 332 335 324 332 332 329 328 328 307 319 325 321 318 318 314
349 345 347 350 350 349 349 349 349 347 347 348 348 345 340 337 335 333 335 336 334 334 332 330 331 330 329 329 329 327 330 329 312 310 312 316 319 316
350 351 347 348 350 349 349 347 346 345 344 340 336 335 335 333 333 334 335 335 334 331 328 325 326 327 326 326 324 327 327 327 326 324 323 312 311 311

GFSNE_sfc_thetae_069.txt.gz
Theta_e
358 359 358 358 358 357 358 353 347 339 341 349 350 359 360 363 360 364 367 350 345 343 340 339 339 341 343 343 343 343 344 343 343 344 343 344 345 346
357 360 359 356 356 358 357 358 356 351 343 352 353 357 363 363 360 366 367 352 351 345 341 338 338 340 342 342 341 340 340 340 339 340 340 340 341 342
359 359 360 362 355 356 359 358 356 354 347 351 357 360 365 365 364 367 366 366 359 346 341 338 337 338 340 339 336 335 335 335 334 334 335 335 334 334
358 359 357 357 361 362 358 361 358 360 353 353 358 357 361 366 367 367 363 360 364 350 340 337 337 336 335 332 329 328 327 327 328 327 326 326 326 327
358 359 359 360 360 358 361 359 358 359 359 356 353 358 359 361 363 364 365 367 361 351 343 340 340 336 331 326 323 321 317 318 319 319 319 320 321 322
360 360 360 360 361 362 360 361 361 358 359 357 354 354 356 362 361 357 355 358 360 362 353 348 347 333 328 324 323 320 316 315 315 315 315 315 316 318
361 361 361 358 349 352 357 361 362 359 355 353 352 352 352 352 354 357 355 357 361 364 359 361 365 369 341 330 328 323 320 318 316 314 313 313 313 314
359 361 362 352 350 339 338 340 350 360 359 354 351 351 356 357 357 356 356 354 348 362 360 359 365 368 358 350 324 322 320 318 316 315 314 313 313 313
361 361 359 357 354 361 343 336 337 335 340 360 356 355 357 359 362 360 360 358 354 356 360 356 365 364 354 333 323 321 319 318 317 315 314 312 311 310
361 362 361 361 360 359 360 359 359 360 358 354 358 360 363 365 365 363 363 362 360 359 366 355 361 362 351 343 322 320 319 317 316 315 313 311 309 308
361 361 362 361 347 334 357 358 359 359 343 336 336 336 335 331 340 359 355 351 347 349 362 361 358 363 352 345 332 320 317 315 314 314 313 311 308 307
358 362 336 352 334 327 354 357 355 356 357 357 360 347 336 349 327 354 357 351 349 348 360 357 356 363 353 354 341 333 327 315 313 312 312 309 307 324
347 348 350 328 325 321 326 360 357 356 350 357 356 357 359 360 361 357 360 357 351 350 356 363 357 360 357 351 349 343 342 337 333 323 311 309 307 310
351 351 351 324 319 319 322 331 325 329 353 350 349 352 353 354 357 360 366 364 362 363 367 366 359 358 356 351 348 350 345 342 337 334 332 318 309 310
352 345 329 318 316 321 319 323 321 347 350 348 347 349 352 355 361 361 363 365 365 366 363 368 362 366 359 352 352 351 344 341 337 333 333 330 328 327
336 346 341 335 331 339 340 331 343 351 350 349 348 350 354 355 354 356 354 356 357 358 365 365 363 362 354 353 353 354 348 341 335 333 332 330 328 328
341 349 350 350 350 351 352 353 354 352 350 351 351 351 352 354 354 357 356 356 353 353 354 361 359 358 354 351 350 351 350 344 339 336 330 331 329 327
341 349 349 349 348 348 349 352 353 349 353 352 351 352 351 352 353 356 357 355 353 353 353 361 352 347 344 346 341 348 346 342 339 335 332 330 332 328
347 349 349 350 349 349 351 352 351 353 359 352 351 351 352 352 351 354 355 355 353 354 355 361 351 343 340 338 343 318 343 340 337 333 332 332 331 332
349 350 351 350 350 352 352 351 352 354 355 354 352 352 352 352 352 353 354 354 353 355 355 343 341 343 344 343 344 343 310 340 335 334 333 332 330 310
341 348 352 354 354 356 355 355 355 350 349 353 353 353 354 355 354 354 354 332 340 351 343 343 347 334 349 345 339 340 338 312 321 334 336 332 331 330
355 351 352 355 354 355 355 355 356 349 349 350 351 352 352 353 352 353 352 340 337 342 344 349 344 343 341 339 339 336 333 328 314 312 313 316 330 325
356 357 356 355 357 358 356 354 352 352 350 349 350 351 351 348 349 345 341 342 343 345 344 340 338 339 338 335 329 330 329 328 328 323 324 313 312 312

GFSNE_sfc_thetae_072.txt.gz
Theta_e
358 359 356 357 358 358 358 354 346 341 344 352 352 361 360 361 360 364 365 351 350 347 342 340 340 344 346 345 344 343 343 343 343 342 343 342 343 344
354 360 361 354 356 356 355 356 354 347 342 354 354 358 364 362 362 365 363 357 357 348 342 340 340 342 344 344 341 340 340 340 339 339 338 338 337 337
359 358 361 363 354 353 355 354 353 352 345 348 356 362 367 367 366 368 363 362 356 347 344 340 340 340 342 339 337 337 336 334 334 333 332 330 330 330
359 360 358 355 362 362 355 360 357 358 351 353 359 356 362 367 366 368 362 359 362 349 341 341 340 338 334 332 331 329 327 326 325 324 324 324 325 326
361 360 360 360 359 355 359 355 355 356 357 354 352 355 357 361 362 367 364 365 358 350 342 342 339 333 329 326 324 320 317 318 318 318 319 320 321 322
363 362 361 360 361 363 361 363 361 358 359 354 352 351 353 360 360 354 351 354 356 358 354 349 345 331 327 324 323 320 316 315 315 315 315 316 317 318
364 364 363 357 350 353 359 365 367 359 353 350 350 351 351 351 356 352 351 352 359 357 359 356 359 350 337 328 330 323 320 318 316 315 314 314 314 315
361 364 365 354 352 342 341 341 350 361 359 354 351 351 362 358 355 351 351 348 346 358 357 351 357 363 368 360 329 323 320 319 317 316 315 314 313 314
362 361 361 358 356 362 343 338 338 336 339 359 358 358 360 361 363 360 363 356 353 356 357 349 355 360 368 337 324 322 320 319 317 315 315 313 312 312
361 362 364 364 362 361 361 359 360 361 359 356 358 359 363 364 367 366 366 365 360 358 364 350 355 354 369 359 323 322 320 319 317 316 315 314 310 309
362 365 366 365 348 334 360 359 360 360 343 336 337 336 332 332 341 357 350 347 343 344 353 348 353 355 367 360 346 321 319 318 317 317 315 314 310 308
358 364 339 354 336 328 361 361 358 358 355 355 359 351 342 353 332 357 356 347 343 341 354 349 352 353 351 364 360 336 330 316 314 316 316 313 309 327
348 347 348 329 327 322 328 364 358 355 348 354 352 352 354 357 361 362 363 357 347 343 346 356 351 352 353 355 362 357 349 341 335 326 310 313 310 311
353 351 354 323 319 321 325 332 325 330 349 342 342 342 343 346 350 356 371 369 364 368 369 372 356 354 352 351 352 374 356 354 351 346 343 321 309 312
353 346 327 318 313 320 321 326 324 349 347 341 341 341 343 345 359 364 370 378 373 372 367 371 364 365 359 355 355 360 362 353 351 347 344 341 339 336
336 344 342 335 327 337 342 333 346 350 348 346 343 344 346 345 345 350 352 353 354 354 370 371 372 368 360 359 360 358 362 352 350 347 343 342 340 337
344 352 352 351 352 352 352 352 353 352 349 350 350 348 347 345 344 349 350 351 349 348 348 355 371 372 366 363 354 357 358 359 354 349 344 341 342 339
345 349 351 353 352 353 352 351 352 348 353 353 352 351 348 346 345 347 349 349 348 349 349 352 364 360 355 356 349 357 360 354 362 350 346 340 340 343
347 351 352 353 354 355 355 354 352 353 360 353 352 351 349 349 345 347 347 349 352 352 352 353 354 355 348 345 353 329 353 360 350 346 343 341 339 339
347 348 351 355 356 358 356 357 356 357 356 356 355 353 352 350 348 348 349 351 351 353 354 358 359 358 351 349 349 354 316 352 348 343 341 342 334 315
348 349 350 354 356 357 358 359 361 359 358 358 357 356 355 353 351 351 350 332 340 353 357 356 358 338 359 359 349 348 342 313 328 345 344 338 335 335
353 353 354 355 357 360 361 361 360 359 357 357 358 358 356 357 356 356 355 353 354 355 357 360 359 351 350 349 347 348 343 339 320 315 315 320 333 327
354 357 358 358 359 360 361 360 360 360 357 357 357 357 356 352 352 352 352 353 354 355 355 349 343 346 346 345 338 343 339 339 334 327 328 314 313 313

GFSNE_sfc_thetae_075.txt.gz
Theta_e
359 361 358 353 351 352 350 349 347 340 340 352 348 362 359 359 360 364 364 352 353 349 345 343 342 345 348 347 344 343 344 344 343 343 341 341 340 341
352 365 365 356 353 351 351 351 350 347 342 348 350 358 364 363 363 365 365 356 352 352 345 344 343 344 346 343 342 341 342 341 339 337 335 333 332 333
364 359 363 370 355 351 350 350 350 350 344 347 352 364 368 371 368 371 365 368 360 348 345 345 343 344 342 340 339 337 335 333 331 330 329 329 329 329
359 364 357 355 368 368 355 371 359 364 351 362 359 352 366 372 374 376 363 358 361 350 342 342 342 340 334 334 332 329 326 325 324 324 324 325 325 326
359 360 360 363 365 359 363 356 354 356 357 352 353 354 355 358 363 370 373 371 362 350 340 342 340 335 331 327 325 321 318 319 319 319 319 320 321 322
362 362 362 362 365 367 361 368 362 360 358 351 349 350 352 364 358 354 352 353 353 355 353 352 346 334 329 325 323 320 317 316 316 316 316 316 317 318
364 363 365 360 351 356 357 365 368 361 352 349 347 348 349 351 358 356 352 353 361 355 352 356 356 349 337 326 330 325 321 319 317 316 315 314 315 316
366 368 369 355 352 342 342 342 350 362 367 354 351 351 366 360 354 352 351 347 344 356 357 353 353 351 356 352 338 326 322 320 318 317 317 314 314 315
367 369 362 355 357 364 344 340 342 337 339 360 361 361 361 366 367 366 361 359 353 355 357 349 353 354 359 338 327 324 321 320 319 318 317 315 313 313
365 368 368 367 367 365 365 362 361 362 361 355 358 361 365 368 369 365 368 369 363 361 365 350 354 352 357 343 324 323 321 320 319 319 318 317 313 311
364 364 366 368 351 337 362 365 365 366 344 339 342 341 340 335 342 357 351 347 343 345 351 346 348 349 353 355 336 322 320 318 317 317 319 317 312 309
359 362 340 352 337 331 362 363 361 363 365 359 359 349 340 351 333 355 356 350 346 343 350 345 346 349 347 355 348 331 328 316 315 314 315 318 313 323
352 353 354 331 327 324 325 364 360 363 358 360 357 354 353 359 361 363 365 359 351 347 350 350 346 347 347 348 355 347 346 338 330 323 310 311 314 313
355 353 355 324 320 322 327 334 328 333 358 354 349 345 345 347 348 352 368 369 364 363 365 370 356 352 349 345 346 356 358 353 345 347 347 323 309 311
357 348 323 319 314 318 318 324 324 348 352 352 350 348 346 346 352 355 360 377 374 374 367 374 366 364 360 353 350 352 351 359 358 353 352 345 341 333
339 348 343 335 325 334 341 333 342 351 351 351 351 352 350 346 345 349 346 347 349 355 371 372 372 372 361 359 358 356 356 358 361 352 354 349 347 343
346 354 352 351 352 354 356 358 359 355 352 353 353 351 349 349 347 349 347 347 347 350 351 355 372 373 369 368 357 358 358 358 368 357 354 352 348 348
343 351 351 353 354 354 356 357 359 352 357 356 354 353 351 351 351 352 350 347 347 349 351 353 354 362 361 367 354 359 358 360 363 359 351 346 345 351
343 352 352 353 354 357 356 356 356 357 360 356 356 357 356 354 351 351 351 349 348 351 352 355 355 352 350 347 357 340 357 359 361 356 353 349 345 349
343 348 352 355 357 358 357 357 358 358 358 359 359 357 356 355 353 352 351 350 349 351 352 357 356 355 354 350 352 358 321 360 358 355 351 351 333 317
348 351 352 355 356 359 361 362 363 360 361 359 358 357 356 355 355 354 352 332 338 353 352 352 357 344 373 371 353 352 357 319 329 351 354 345 340 338
344 353 354 354 355 360 361 361 361 362 364 362 360 362 365 362 357 357 354 350 354 351 352 355 370 366 364 355 351 353 353 350 327 321 321 325 344 332
347 352 361 361 359 363 361 361 360 360 361 361 361 360 362 359 360 360 360 358 357 357 360 358 362 359 356 354 345 347 345 347 340 339 338 317 314 315

GFSNE_sfc_thetae_078.txt.gz
Theta_e
364 361 359 353 356 354 356 355 349 343 344 354 350 362 362 365 359 365 364 358 358 351 348 344 343 346 348 345 344 344 345 344 342 340 338 336 336 337
357 361 363 349 359 357 354 357 355 351 342 349 356 363 365 364 365 368 368 357 353 352 350 345 344 345 346 343 342 341 340 339 337 335 333 333 332 332
365 361 360 363 355 360 357 357 355 356 350 352 357 370 367 367 364 368 369 365 361 349 352 346 344 345 343 341 339 336 334 331 331 331 330 329 329 328
361 359 360 358 362 363 360 358 360 360 356 351 356 355 355 360 370 367 367 360 360 350 346 342 342 341 337 336 333 329 326 325 325 325 325 325 326 325
363 362 360 362 361 359 363 361 357 359 359 354 351 358 360 360 361 366 367 366 366 352 341 342 339 337 332 329 326 322 319 319 320 320 320 320 321 321
362 364 363 361 361 362 360 361 358 359 356 356 352 350 352 355 362 357 357 356 354 357 353 349 343 336 331 327 324 321 317 317 317 317 316 317 317 318
360 362 363 363 354 357 358 360 359 358 355 351 349 350 350 357 357 359 354 356 356 358 352 358 349 340 332 328 329 326 320 319 317 316 315 314 315 316
358 362 365 357 351 342 341 342 352 359 357 355 354 351 352 357 358 356 353 348 342 357 354 351 355 352 348 335 333 327 322 320 318 317 316 315 315 315
362 360 360 356 354 358 342 339 340 337 342 352 350 352 353 355 358 357 355 355 353 354 353 346 353 353 357 343 331 326 322 320 319 318 319 316 315 314
360 362 361 360 361 362 362 359 354 355 352 347 348 349 352 354 358 357 355 356 359 360 360 349 355 353 354 344 329 325 321 320 318 318 317 320 315 312
358 359 358 363 348 338 356 358 361 361 347 338 341 339 338 336 342 356 351 347 343 344 348 344 343 348 350 341 328 323 320 318 317 316 317 318 314 309
352 355 339 347 335 329 352 356 353 354 360 360 351 342 336 343 332 347 353 348 346 345 348 343 345 346 342 353 337 326 322 317 314 314 314 315 316 314
352 352 353 331 325 324 324 356 354 354 352 356 356 355 354 356 357 354 354 352 348 347 351 349 343 351 348 344 350 336 331 325 320 316 311 310 311 314
354 354 354 326 321 323 325 330 328 333 355 353 353 351 350 349 348 348 358 358 357 355 356 355 353 351 348 346 345 347 342 341 332 333 327 317 309 310
357 349 333 323 318 317 318 321 320 341 346 346 346 348 350 351 349 346 346 361 363 363 361 361 357 357 356 351 348 347 346 348 342 343 346 331 326 320
334 346 342 335 329 334 335 329 332 343 344 345 345 348 351 351 349 347 341 339 339 354 365 364 365 361 355 356 353 351 352 347 354 352 351 341 337 335
329 350 350 351 349 349 350 351 351 346 344 347 347 348 350 350 349 348 343 340 340 341 340 357 364 364 363 358 353 355 354 354 356 354 349 346 345 344
335 345 347 351 352 352 350 349 351 349 354 351 350 349 348 348 348 349 347 343 341 342 341 343 351 356 358 360 352 353 355 353 355 353 352 344 341 347
332 339 345 350 352 353 354 354 353 354 356 354 354 353 351 350 346 346 345 346 347 346 345 346 350 349 343 340 350 338 353 354 352 352 351 344 341 345
333 336 340 345 348 351 353 353 355 357 357 354 354 352 352 352 352 350 349 348 346 345 344 346 349 345 342 340 341 353 327 355 351 349 348 343 326 322
336 340 343 345 347 350 353 356 355 354 356 357 358 355 356 352 348 347 347 330 335 346 344 345 347 335 351 359 347 347 351 321 335 351 349 344 331 330
335 336 339 341 350 351 352 356 357 355 354 357 359 357 361 357 352 352 352 349 347 348 348 351 350 352 351 347 344 346 347 339 322 325 324 328 335 332
342 344 346 349 355 355 355 356 355 355 356 354 356 357 358 355 355 356 353 353 350 349 349 348 350 349 347 347 341 347 348 350 338 333 332 322 320 318

GFSNE_sfc_thetae_081.txt.gz
Theta_e
347 347 345 345 344 347 345 343 338 332 333 341 339 347 352 354 353 355 355 356 349 354 348 344 343 344 347 344 344 343 342 341 339 337 336 335 335 335
344 343 347 344 343 348 348 346 343 338 333 343 348 353 357 357 357 357 358 354 351 347 349 345 343 343 344 342 341 339 338 336 334 334 333 332 332 331
349 349 348 351 347 349 350 347 347 346 341 344 348 355 349 351 356 357 359 358 356 349 346 346 343 342 342 340 338 335 333 331 330 331 330 329 328 327
347 349 345 353 349 351 347 346 346 345 342 336 342 342 344 346 350 358 357 362 356 352 344 344 340 340 337 335 333 330 327 326 326 326 327 325 325 324
348 348 349 348 348 347 345 348 347 352 349 345 344 346 349 346 345 350 356 356 358 356 341 340 338 337 334 331 328 324 320 320 321 321 321 322 322 321
351 352 351 348 348 347 346 346 348 345 347 344 342 342 341 345 348 348 346 347 347 354 347 342 340 337 334 328 326 323 318 317 317 317 317 318 318 319
351 352 353 354 352 351 350 347 349 346 345 344 342 342 344 346 347 350 345 347 344 345 344 348 342 340 335 330 329 328 320 318 317 316 315 314 315 315
347 349 352 351 350 344 343 345 350 349 345 345 344 345 344 347 348 346 347 342 339 348 346 345 345 344 344 334 330 327 322 319 318 316 315 314 314 314
350 350 351 354 349 353 341 338 338 338 342 344 342 342 341 342 343 340 341 343 343 348 347 346 349 347 351 341 329 326 323 320 318 317 316 315 314 314
355 355 353 350 349 351 352 348 344 345 342 341 344 345 343 343 344 344 345 345 348 351 352 345 350 347 352 346 330 327 323 320 318 317 315 315 314 312
350 351 353 352 343 336 348 350 352 352 343 334 336 335 334 332 337 348 345 341 341 342 341 340 341 336 338 342 332 327 323 319 316 316 316 316 316 310
345 347 336 345 334 331 346 348 345 348 351 354 343 340 334 338 331 340 345 339 341 340 344 339 339 335 332 341 330 324 320 316 314 314 314 314 313 314
348 348 347 329 323 323 323 347 346 349 347 349 350 351 350 347 347 343 345 346 344 344 346 342 337 336 340 339 339 326 323 319 318 314 311 310 310 313
349 351 350 327 320 319 322 327 324 328 345 348 348 348 348 348 349 350 352 350 351 348 348 345 342 341 337 337 338 336 327 326 320 321 320 314 308 309
337 340 324 319 319 318 317 320 320 332 336 339 341 343 346 349 349 344 343 342 351 353 353 351 350 349 343 343 340 341 341 338 329 330 330 325 320 313
329 333 333 330 328 334 334 330 327 331 335 337 339 342 344 343 345 347 345 345 341 338 352 356 355 353 349 348 349 347 343 340 340 337 338 337 328 323
325 331 340 344 343 346 347 348 348 338 335 338 339 340 340 342 343 345 345 344 337 337 334 337 357 357 356 352 345 350 348 345 344 345 342 342 337 335
321 328 333 341 345 346 346 346 347 343 343 343 341 342 341 342 343 345 346 343 340 339 335 335 338 347 347 351 348 348 346 349 348 345 345 344 344 341
319 321 326 332 341 347 348 348 347 347 347 347 346 345 345 345 342 344 344 343 341 338 337 337 336 335 332 335 339 335 348 348 348 343 345 342 342 343
314 321 325 330 334 339 344 347 349 349 349 349 348 349 348 347 345 345 344 343 341 340 339 338 339 337 338 336 333 339 323 350 347 347 343 330 321 317
322 322 327 332 333 335 341 345 348 349 348 348 349 349 350 348 347 347 346 331 334 342 341 340 339 331 340 345 340 341 346 318 336 346 341 333 324 323
323 326 328 330 332 336 343 344 344 346 348 349 349 348 348 348 346 345 343 342 339 338 341 341 343 345 344 340 338 335 341 339 324 324 325 330 333 325
321 325 333 336 339 340 342 344 344 346 347 348 349 349 347 347 347 348 345 344 343 341 343 343 342 341 341 342 338 341 341 340 329 328 326 317 321 324

GFSNE_sfc_thetae_084.txt.gz
Theta_e
343 344 342 341 340 345 342 340 333 327 329 340 339 346 351 351 352 350 354 350 348 344 343 341 342 344 346 344 343 342 341 339 337 335 335 334 334 334
341 340 342 345 340 345 345 343 340 334 330 339 345 351 353 352 354 354 355 351 349 345 343 340 340 342 344 342 340 339 337 336 335 334 332 331 330 329
342 346 344 347 345 346 345 343 343 342 335 339 346 347 345 343 346 349 354 355 354 346 343 340 338 339 341 339 337 335 333 331 331 332 331 329 328 326
345 343 345 347 345 347 345 344 344 344 340 337 339 341 343 345 347 345 351 358 356 350 341 337 336 336 336 335 333 331 328 327 327 328 328 328 326 325
345 344 345 343 342 344 343 342 343 347 345 343 341 344 345 341 344 346 347 351 351 347 341 336 335 334 334 331 328 325 321 320 321 322 323 324 324 323
347 347 347 346 344 343 344 342 342 342 341 341 340 339 340 343 346 347 343 345 346 349 343 340 338 336 335 330 328 326 319 316 316 317 318 319 320 321
349 350 350 350 346 344 347 344 343 342 341 341 340 340 342 343 343 346 342 343 342 342 344 343 341 340 339 333 334 332 324 319 316 315 315 314 315 316
345 346 348 347 346 342 340 341 344 343 342 341 339 339 340 343 345 344 340 336 332 343 343 342 343 343 344 339 336 331 325 321 318 316 315 314 314 314
348 347 346 350 346 349 343 337 336 336 340 344 341 340 339 341 340 336 336 336 336 342 343 343 346 346 347 346 332 329 325 321 318 317 316 314 313 312
351 350 348 348 348 347 346 346 346 343 341 341 344 346 344 345 339 338 335 338 341 344 347 341 341 342 345 344 335 329 325 321 318 316 315 313 311 310
344 349 352 352 341 331 344 347 348 350 342 330 332 332 331 330 335 339 338 338 337 339 341 339 340 336 335 336 339 325 322 319 317 316 315 313 310 310
344 344 334 343 332 329 341 345 343 346 347 350 348 334 331 335 327 339 342 337 336 337 340 338 335 334 332 335 336 329 322 316 314 314 314 313 310 314
340 346 347 328 321 321 324 348 347 347 344 345 348 349 348 346 346 341 342 344 341 340 343 340 336 333 334 335 338 332 325 321 319 315 310 309 308 312
346 349 348 323 315 314 318 323 322 324 339 342 342 344 346 348 349 350 347 345 348 347 349 343 339 339 333 332 333 337 328 324 321 321 320 314 308 309
337 333 322 316 314 321 321 319 319 329 332 333 336 339 343 346 348 346 349 350 349 349 349 348 344 344 339 340 337 336 337 335 325 325 322 321 321 315
327 331 328 325 321 327 329 335 331 333 336 339 341 342 343 342 342 344 343 344 342 343 345 348 348 346 343 343 344 342 340 339 336 330 330 329 327 323
309 320 324 327 329 334 341 343 344 342 335 338 340 341 341 341 340 341 342 342 340 340 341 342 344 348 348 346 341 345 345 342 344 340 333 333 334 331
309 315 318 323 326 328 333 340 345 343 346 344 342 342 341 341 339 340 340 340 339 340 341 341 333 335 343 348 345 346 344 347 347 343 339 338 339 339
309 313 317 319 321 323 329 336 342 346 348 344 343 343 342 341 339 340 341 341 340 341 342 342 333 329 328 329 337 333 348 346 345 340 344 343 343 342
305 310 313 316 319 323 327 329 333 340 344 347 346 346 346 344 342 342 341 340 340 341 341 338 334 335 333 333 331 336 320 349 342 343 340 332 326 318
311 314 316 318 321 324 327 331 334 336 338 342 345 346 346 345 344 344 343 327 332 342 340 340 340 329 339 339 335 336 341 316 328 345 339 334 329 328
307 310 315 322 325 327 329 333 334 337 340 342 344 345 344 344 343 344 342 337 338 341 342 345 339 336 334 334 337 334 333 336 325 321 316 322 331 329
306 310 313 314 317 322 330 333 336 338 341 343 341 344 345 343 344 344 343 343 343 343 343 340 338 339 339 338 335 339 337 337 333 331 329 318 317 315

GFSNE_sfc_thetae_087.txt.gz
Theta_e
341 342 341 343 341 342 341 339 331 326 328 338 340 345 349 349 351 352 351 349 346 345 341 340 340 343 347 345 344 342 341 339 337 335 334 333 333 332
340 339 338 344 343 345 343 341 337 332 328 336 343 349 350 347 349 349 350 348 347 344 341 339 339 341 343 343 341 340 338 336 335 334 333 331 329 328
340 342 343 343 344 347 346 341 341 339 333 337 344 344 344 343 345 346 348 349 352 345 339 339 337 338 340 340 338 337 335 333 332 332 332 330 327 326
342 341 341 346 342 344 345 344 342 342 340 336 339 341 342 344 344 344 349 353 349 344 337 338 336 334 335 335 333 332 330 329 328 329 329 330 327 325
343 342 342 342 340 339 342 340 340 343 342 340 339 341 343 340 343 347 346 346 348 347 340 338 337 334 332 331 329 326 322 321 322 323 324 325 326 325
347 344 341 343 342 342 341 341 340 340 339 339 337 338 339 343 345 344 343 342 344 347 342 340 339 338 334 331 330 328 322 318 316 318 319 320 321 322
346 347 347 346 345 343 344 342 341 339 339 337 337 337 338 338 338 342 341 341 340 338 339 343 340 341 341 337 339 336 329 323 318 316 316 315 316 317
343 344 345 345 344 339 337 338 343 342 339 338 338 336 336 338 340 340 337 333 328 336 339 339 342 342 344 343 339 334 330 325 321 317 315 314 314 314
345 345 346 349 343 346 341 336 335 334 336 344 341 340 339 340 339 335 333 332 331 336 339 337 342 343 345 344 334 332 328 325 322 319 316 315 313 313
346 347 346 346 345 345 345 344 344 345 341 339 343 347 345 346 341 339 335 332 335 339 343 337 338 338 341 341 333 331 327 324 321 318 316 314 311 310
341 343 348 348 339 331 340 343 345 346 341 329 332 331 329 328 333 337 335 333 338 337 342 338 336 335 335 336 337 326 323 320 317 317 316 314 310 308
343 343 331 337 330 326 339 344 343 344 346 346 345 335 329 334 327 336 342 337 339 338 340 338 334 334 331 334 336 336 332 320 314 314 314 313 309 313
342 343 345 329 318 316 316 339 342 341 343 343 345 346 346 345 345 337 340 341 342 340 344 340 335 331 332 333 335 338 332 329 323 319 310 310 308 312
337 342 340 322 314 313 316 319 317 321 331 336 339 340 341 343 346 347 346 344 347 347 350 343 338 338 333 330 331 336 333 330 325 326 322 314 308 308
328 324 317 313 311 316 320 320 318 330 330 334 337 338 340 343 344 344 345 348 346 346 347 347 343 345 338 339 338 338 334 335 326 327 324 322 319 314
311 311 313 316 316 319 321 328 333 334 335 337 339 342 344 343 341 342 341 342 340 342 347 349 347 345 342 343 341 339 341 335 334 330 329 327 325 322
301 308 314 315 316 319 323 330 337 339 337 337 338 340 342 343 342 343 340 340 338 338 340 342 342 344 344 342 338 339 340 340 341 341 330 332 332 331
301 307 310 312 316 318 320 322 325 330 337 342 341 340 341 342 342 342 340 338 336 337 338 340 337 332 334 340 340 340 339 340 343 342 336 337 340 339
305 306 308 310 313 314 316 319 321 326 334 340 342 344 344 343 339 340 340 339 337 337 339 341 336 333 332 329 334 331 341 342 342 338 341 339 340 343
304 305 308 311 313 314 316 318 321 324 327 331 336 341 343 344 343 342 341 340 339 339 339 341 339 337 332 334 334 334 318 345 341 341 339 340 336 318
301 302 305 307 309 314 319 321 323 326 328 330 332 335 339 342 342 343 343 326 331 341 339 340 343 332 340 336 334 336 337 317 327 340 339 335 333 331
301 302 304 305 308 311 313 316 318 321 326 331 335 337 339 341 341 342 343 342 342 341 341 343 342 337 334 334 335 336 333 334 321 320 320 326 334 331
300 302 302 303 304 306 309 308 309 312 316 323 323 324 335 337 338 338 340 339 340 339 338 338 341 338 338 336 333 337 335 335 332 328 326 316 318 316

GFSNE_sfc_thetae_090.txt.gz
Theta_e
349 348 348 348 348 347 348 346 341 336 338 347 352 359 360 360 357 360 359 350 345 343 341 339 340 342 345 347 345 343 341 340 337 335 334 333 333 332
346 347 347 348 351 352 349 348 344 341 339 344 351 356 355 354 355 357 356 348 346 343 339 338 339 340 342 344 343 341 339 336 335 334 334 331 329 329
347 348 349 351 350 352 352 348 349 347 344 347 350 354 356 356 357 359 359 360 358 341 337 337 338 337 339 340 339 338 337 335 333 333 333 331 328 326
347 347 347 347 350 352 352 351 350 350 348 346 349 350 353 355 355 356 356 355 356 346 337 335 336 335 334 333 333 333 331 331 330 330 331 331 330 326
349 348 348 348 348 348 347 348 347 348 350 347 346 349 351 350 353 357 358 359 356 347 339 337 338 336 332 330 328 326 323 323 324 324 326 327 328 327
348 350 349 348 349 350 348 348 347 347 347 346 345 346 347 352 352 350 350 354 353 352 344 340 340 339 336 332 330 329 323 319 318 319 320 321 323 324
350 351 351 349 344 345 351 352 349 347 347 346 345 346 347 347 347 350 349 349 350 348 346 351 351 351 351 342 343 339 331 325 321 317 317 316 317 319
350 351 351 345 345 338 337 338 347 351 350 347 347 346 349 349 349 349 348 344 341 348 349 347 350 351 352 354 341 334 331 327 324 320 316 315 315 316
352 351 351 352 348 351 339 334 335 334 340 353 349 350 350 353 352 350 347 344 343 347 346 346 352 350 354 351 335 332 329 326 323 321 318 315 314 313
350 351 351 352 352 351 351 351 352 352 349 344 348 351 354 355 353 354 352 347 345 346 349 344 352 349 354 353 335 329 326 324 322 320 318 315 312 310
347 347 348 350 339 330 347 348 350 351 342 329 332 332 330 328 337 348 345 344 344 347 350 348 351 348 350 350 352 331 325 322 319 318 317 315 310 308
346 348 333 337 327 322 340 346 345 349 350 352 353 343 333 340 326 341 348 344 344 344 353 346 348 346 344 351 348 350 352 326 318 314 315 314 309 325
334 338 340 320 316 315 315 337 341 343 341 343 346 348 350 352 352 348 347 347 346 346 350 351 348 347 343 344 348 350 351 350 346 338 311 309 308 318
317 320 322 315 311 313 317 320 319 320 334 338 341 344 346 348 350 352 354 350 352 352 356 352 348 348 347 344 343 350 350 349 348 346 347 324 308 309
313 311 309 307 308 315 318 317 318 330 332 333 334 337 343 348 351 352 353 356 355 354 352 355 352 352 350 346 345 348 346 349 348 345 347 342 340 330
309 308 309 310 312 316 320 327 331 334 334 335 337 341 345 346 347 348 346 348 347 347 355 355 355 353 347 349 349 347 349 346 353 349 345 345 343 339
302 309 314 316 316 319 321 324 328 331 332 336 339 340 342 344 344 348 348 346 342 344 346 350 354 355 353 352 346 348 347 348 350 351 348 345 348 347
305 308 308 310 312 314 316 318 321 323 326 329 335 339 340 340 338 341 343 342 340 344 344 346 346 347 345 347 343 345 347 347 349 352 350 345 346 354
304 303 304 306 308 312 314 316 318 322 327 329 331 334 337 340 336 336 340 340 340 341 344 346 344 342 338 335 347 330 346 347 348 349 350 346 346 351
301 301 302 304 306 308 310 312 319 320 323 327 330 332 334 336 337 340 343 343 341 340 340 343 343 344 339 339 342 348 318 347 350 348 351 352 350 326
299 300 302 303 304 306 307 309 311 315 316 316 319 322 329 332 333 336 337 323 329 341 339 340 344 334 349 348 339 340 342 315 335 348 350 347 346 346
296 297 299 301 303 304 305 306 307 309 309 310 312 316 321 328 327 329 331 336 339 342 344 345 345 348 343 338 337 341 345 347 321 316 320 329 343 340
294 294 295 296 298 300 301 304 306 307 308 309 310 313 318 320 322 324 330 334 338 337 338 337 340 343 341 339 334 339 341 344 341 333 331 317 319 317

GFSNE_sfc_thetae_093.txt.gz
Theta_e
358 359 356 356 359 357 357 356 349 342 346 355 358 364 361 363 360 363 367 351 345 344 340 339 341 344 346 348 348 345 343 340 337 336 334 333 332 331
355 357 357 355 357 360 359 358 356 351 343 355 358 360 363 360 358 364 364 352 348 343 338 338 340 342 343 344 346 344 342 339 336 335 333 332 330 330
357 357 357 360 354 357 360 358 355 355 346 352 356 360 364 363 360 362 360 365 359 343 340 337 337 339 341 341 341 341 341 338 336 335 335 333 331 330
357 356 355 353 358 359 356 360 357 358 350 351 354 352 358 362 362 363 359 357 361 350 341 337 336 337 335 335 333 334 333 334 334 333 333 334 333 330
357 357 356 357 357 354 356 353 352 354 354 351 350 354 356 358 360 361 362 363 356 348 341 337 339 338 335 332 330 327 324 324 326 327 328 329 331 331
359 359 359 357 358 359 357 359 356 354 355 353 352 352 354 360 359 355 353 357 357 359 350 342 340 342 338 334 333 333 324 321 320 321 322 323 325 327
357 358 359 355 347 349 354 361 361 358 352 350 349 350 350 350 352 353 354 356 359 358 354 355 352 354 352 344 347 341 333 326 322 320 318 318 319 321
357 359 360 349 350 338 337 338 349 358 356 349 348 349 356 356 355 353 352 351 347 355 356 350 352 352 353 352 341 336 331 328 325 322 319 317 316 317
360 361 360 356 353 360 342 335 336 334 338 359 354 357 358 363 361 359 358 355 352 354 356 348 351 350 354 351 338 334 329 326 325 322 321 318 316 315
357 358 360 360 359 357 359 358 360 362 360 353 356 359 362 363 364 361 360 358 357 355 362 348 351 350 355 357 339 333 329 326 325 322 319 316 313 311
351 353 354 355 325 324 351 356 358 358 346 333 334 333 332 329 336 354 352 350 347 349 356 353 352 352 355 355 357 337 329 325 322 321 319 316 312 310
344 339 325 320 316 317 336 348 350 355 355 358 359 350 340 351 329 349 354 350 349 348 356 351 351 352 348 353 356 357 358 326 319 317 317 315 310 337
323 324 324 317 313 312 316 334 335 332 335 341 346 353 356 357 357 359 360 355 351 350 354 357 352 352 351 350 354 356 357 356 358 350 315 311 309 324
313 315 316 308 306 308 315 319 315 318 332 334 336 337 339 342 344 347 358 360 359 359 363 367 354 353 351 349 348 353 356 358 358 357 357 333 309 309
310 310 309 307 307 314 316 316 315 331 332 332 332 334 335 338 345 349 352 360 361 360 358 361 357 358 354 351 349 352 351 355 357 356 357 356 355 354
307 311 312 310 310 315 320 324 328 330 329 330 333 335 337 338 339 342 342 343 344 347 358 362 361 360 354 353 352 350 353 350 356 356 356 357 357 356
304 313 313 314 315 317 319 321 322 325 325 326 327 329 331 333 335 339 341 342 341 342 344 347 361 363 357 359 349 351 352 352 355 356 357 354 355 356
307 308 309 310 311 311 313 315 318 320 322 325 326 327 328 330 332 334 337 337 338 341 342 346 350 348 348 354 347 350 351 352 354 358 357 352 351 354
305 304 305 307 308 310 311 312 313 317 322 320 321 324 328 329 329 330 332 333 335 338 341 344 343 341 338 336 348 332 349 351 353 353 353 353 351 354
303 303 304 306 306 306 308 309 309 310 312 314 316 317 319 320 322 326 331 332 335 337 338 342 341 342 344 339 340 349 318 351 351 349 349 351 353 333
300 301 301 302 303 304 304 305 305 307 309 310 312 313 314 314 316 319 323 316 320 330 331 336 343 334 351 352 341 342 349 317 336 352 352 349 349 350
299 299 299 300 300 300 301 302 303 304 305 307 308 310 311 312 315 318 320 320 325 327 332 337 343 349 344 344 337 340 344 350 336 319 320 326 349 344
298 298 298 299 299 298 298 298 299 300 301 301 303 305 308 308 308 309 310 316 321 323 324 327 333 344 344 343 334 337 342 344 344 341 342 319 318 319

GFSNE_sfc_thetae_096.txt.gz
Theta_e
358 359 356 354 356 358 358 355 349 341 345 356 353 364 362 364 359 361 363 351 348 345 340 339 342 346 348 351 351 349 346 343 340 338 336 335 333 332
355 357 358 352 353 354 354 353 353 349 343 354 354 359 362 359 359 361 360 353 350 345 341 340 340 344 345 348 348 348 345 342 340 337 337 336 334 331
360 358 358 360 352 350 352 353 350 349 345 348 355 358 365 363 362 364 360 359 354 346 343 342 339 341 343 344 344 344 344 342 340 337 337 337 335 332
355 357 357 352 358 358 352 359 357 357 349 353 357 352 360 363 363 365 358 355 355 348 343 341 339 338 337 336 336 336 335 336 337 336 336 336 336 335
356 356 356 356 357 352 353 351 349 350 352 348 348 350 353 358 359 365 361 362 357 350 343 339 341 342 338 333 331 329 325 325 328 330 331 332 333 334
358 357 355 356 358 358 358 358 358 355 356 349 347 346 348 358 356 350 347 351 353 355 352 346 344 345 340 335 334 333 326 321 321 323 324 325 327 330
357 358 358 355 349 350 354 362 363 354 348 344 344 344 345 347 352 350 348 350 355 355 352 354 351 348 348 341 344 341 335 329 323 320 320 320 320 323
358 361 360 353 351 341 339 339 348 360 356 351 347 348 358 356 354 351 350 347 345 354 354 349 350 348 348 350 343 337 334 330 327 323 320 319 318 319
360 361 357 352 354 358 343 337 338 335 338 361 354 355 360 365 361 358 360 355 352 353 355 347 353 350 351 349 340 338 334 330 325 323 322 320 318 317
360 360 360 359 332 342 358 357 358 360 363 357 358 361 364 365 369 363 362 363 360 357 361 346 351 350 354 354 338 337 333 330 327 324 321 318 315 313
350 339 344 341 318 319 352 357 358 358 347 333 334 332 331 330 338 355 352 349 347 348 355 348 349 349 351 352 354 338 334 328 324 323 322 319 314 312
348 339 320 321 312 313 338 346 349 352 352 350 354 351 342 352 332 355 357 351 350 347 356 352 352 352 348 353 353 354 357 326 321 320 320 319 313 341
334 335 333 312 308 307 310 334 336 331 333 339 344 348 352 354 355 358 369 363 354 352 355 358 353 354 355 351 354 355 354 353 356 349 318 316 312 325
313 316 318 308 306 307 312 316 314 317 333 339 340 340 341 343 344 346 355 353 353 358 362 366 356 355 354 351 349 354 356 357 357 357 358 338 313 311
314 310 308 306 307 313 312 316 315 333 336 335 336 338 340 342 345 348 355 363 364 361 355 365 360 361 357 354 352 354 352 356 358 357 359 358 358 358
312 315 315 312 311 316 319 323 327 326 327 326 327 331 332 333 334 336 336 338 339 341 356 360 366 366 355 360 361 353 356 352 356 357 358 359 361 360
304 316 316 316 316 318 319 320 322 323 322 324 325 326 327 328 328 331 332 333 333 335 338 342 357 360 355 361 350 350 352 353 356 354 365 355 358 360
310 310 311 311 313 314 315 316 317 319 320 322 322 322 322 324 327 330 331 330 329 331 333 337 341 341 343 348 342 346 348 348 352 354 360 352 353 359
311 310 308 309 310 309 310 312 313 315 317 316 316 318 319 319 318 320 322 323 326 330 331 334 335 338 338 335 342 328 342 344 349 352 357 356 354 355
308 308 308 308 308 307 308 307 309 309 310 312 313 315 316 316 316 316 317 318 320 323 324 326 327 330 331 332 337 345 318 349 345 346 347 352 353 336
306 306 306 306 306 306 306 306 307 307 306 307 309 310 312 313 313 315 315 310 313 320 319 322 329 324 336 342 337 340 344 320 336 349 350 350 347 349
305 304 305 305 305 305 304 304 304 304 305 305 305 306 306 308 309 310 311 311 312 313 316 321 327 328 327 327 331 338 341 345 335 320 323 331 348 339
304 304 304 304 304 304 304 303 303 303 303 303 303 304 304 303 304 305 306 307 308 310 313 315 318 322 321 323 324 330 338 342 341 342 345 324 321 320

GFSNE_sfc_thetae_099.txt.gz
Theta_e
361 361 357 352 350 353 353 350 346 338 346 340 354 350 359 360 360 361 361 352 350 347 341 342 344 347 350 351 352 352 350 348 345 343 341 338 336 333
355 363 360 353 354 351 351 351 350 346 340 349 356 361 364 361 361 365 362 353 352 349 343 344 344 345 347 349 349 348 348 346 343 341 339 339 338 334
362 360 358 365 353 350 353 351 349 348 343 347 352 363 367 364 363 367 363 365 355 348 345 345 344 343 346 346 346 345 344 344 343 341 339 338 338 337
356 357 356 352 365 365 351 361 353 357 349 352 355 350 359 369 371 373 360 356 356 350 348 345 344 339 340 339 338 337 336 336 338 338 338 338 337 337
356 356 356 356 360 355 360 354 350 349 353 348 347 350 352 353 357 366 367 364 357 350 345 342 344 340 339 335 333 331 327 326 328 331 333 334 335 335
358 357 357 356 359 361 355 365 359 354 353 348 346 348 348 357 353 351 348 351 350 352 351 347 347 344 340 336 335 333 326 323 322 323 325 327 329 331
359 358 359 356 350 350 354 365 363 357 350 348 344 343 343 351 351 349 350 349 355 354 352 351 351 351 350 339 345 342 334 329 324 322 321 321 322 324
357 360 363 353 351 343 341 341 348 357 356 351 348 348 358 355 353 352 352 347 344 356 354 353 354 352 352 354 345 339 334 332 328 324 321 320 320 320
363 362 357 353 353 358 344 338 339 336 339 359 354 357 359 363 365 361 359 356 352 356 357 353 356 354 354 350 341 337 336 334 330 326 323 320 319 318
358 359 360 353 331 334 350 357 357 359 357 356 360 360 364 368 366 364 364 362 360 360 363 352 356 352 354 354 336 338 337 335 331 326 322 320 317 315
349 344 352 346 316 316 345 353 357 360 343 334 336 334 331 331 339 354 351 347 346 349 358 352 354 355 356 358 358 337 333 330 327 326 324 321 317 314
352 333 315 318 311 310 327 341 346 350 349 348 346 349 343 351 334 351 360 353 354 348 355 354 353 354 349 356 358 360 361 328 323 322 323 321 316 338
320 321 326 312 308 308 308 327 334 324 329 335 339 344 348 351 349 357 363 362 350 350 351 349 347 350 350 350 356 359 360 358 359 347 318 316 313 326
319 318 314 308 306 307 312 314 312 317 328 336 339 340 341 343 345 349 355 354 350 353 356 361 350 350 350 349 350 357 360 362 363 361 362 345 316 314
319 313 308 306 306 310 314 314 315 326 330 330 329 329 332 334 342 343 348 356 360 362 353 364 357 354 355 348 348 350 349 355 360 360 361 361 361 344
314 315 316 313 310 313 316 322 325 325 323 323 323 327 330 330 329 333 331 333 333 335 345 354 360 358 346 348 349 349 353 350 351 358 358 359 361 362
304 317 318 318 318 319 319 320 321 321 321 322 323 322 322 324 325 329 329 331 330 331 332 337 346 353 348 348 342 345 346 348 352 351 365 354 357 355
309 312 313 313 313 313 314 315 317 318 317 317 317 317 317 318 319 320 322 322 323 324 326 329 332 335 338 343 342 345 345 344 347 348 352 349 351 358
311 313 313 312 312 312 311 310 309 312 316 312 313 313 315 316 316 317 317 319 319 321 322 324 325 326 324 322 330 326 339 343 344 346 349 349 347 351
311 310 310 310 309 309 309 309 310 310 310 309 310 310 311 311 311 312 313 316 315 317 317 320 324 325 322 320 324 331 321 337 335 338 344 349 350 333
309 309 309 308 308 309 308 308 309 307 306 307 307 307 307 307 307 308 309 306 307 312 312 313 318 316 321 323 322 325 331 320 324 337 342 339 342 345
308 308 308 308 308 308 307 307 306 306 306 305 305 306 306 306 304 304 304 304 305 306 307 308 312 312 312 315 318 320 321 327 325 321 321 324 337 335
307 307 307 307 307 306 306 305 304 304 304 304 303 303 303 302 303 303 303 303 304 303 304 305 306 307 307 307 309 314 321 324 327 328 332 325 320 320

GFSNE_sfc_thetae_102.txt.gz
Theta_e
356 364 362 355 351 354 354 353 344 332 324 329 333 344 342 343 343 362 364 354 351 348 342 343 345 345 348 349 351 351 351 350 348 345 342 342 342 338
356 360 360 360 358 353 355 350 350 343 334 335 336 347 342 348 346 364 364 354 352 352 343 349 350 346 346 348 348 347 347 347 346 344 341 340 340 340
359 358 357 361 358 356 354 350 350 350 344 347 347 346 345 346 360 364 365 363 359 346 346 349 350 347 344 345 345 344 343 343 343 344 343 340 339 339
358 361 359 352 359 362 358 356 356 356 352 347 352 354 356 361 362 366 363 357 357 352 344 344 348 342 341 339 339 338 336 336 337 338 340 341 339 338
360 358 359 356 357 357 358 356 354 353 351 349 347 350 350 351 350 356 360 357 361 350 341 341 341 338 337 335 333 332 328 327 328 330 332 335 337 337
361 362 361 360 357 357 355 356 354 354 352 351 350 349 349 351 355 348 343 355 354 355 351 346 347 342 338 334 333 332 327 324 323 324 325 326 329 332
360 359 359 351 348 347 356 357 356 353 350 347 346 347 349 350 349 352 352 351 351 354 351 353 351 351 350 344 341 340 335 330 325 322 322 321 322 324
358 361 363 351 352 341 340 340 346 352 350 352 350 347 349 352 353 353 352 349 346 358 354 350 353 353 355 353 347 341 337 333 329 326 323 320 319 320
356 358 355 347 335 339 346 339 339 336 337 350 350 350 352 354 357 354 353 353 350 353 352 348 354 352 356 355 339 339 339 334 331 327 325 322 320 318
356 355 353 333 321 321 336 351 356 359 356 351 350 354 358 359 356 355 354 353 354 354 356 347 353 352 357 358 341 339 335 334 330 328 324 321 318 316
343 325 337 324 315 315 335 340 345 352 341 334 333 330 329 328 335 347 346 347 344 347 353 350 351 350 353 355 355 337 331 327 326 326 325 321 318 315
336 326 315 313 311 311 322 327 334 337 330 329 332 336 338 344 335 344 349 345 345 343 354 345 341 343 338 349 351 354 357 339 323 322 321 320 316 327
325 322 322 311 308 308 309 320 328 319 324 326 331 336 343 347 347 351 356 352 346 343 347 342 341 343 345 345 351 352 352 351 356 352 327 317 315 322
321 325 319 308 305 306 311 315 312 316 326 329 329 327 327 329 330 337 342 347 350 349 349 350 345 344 343 342 341 348 349 352 353 352 354 342 321 313
317 312 309 307 306 309 312 314 315 326 327 322 321 322 327 328 329 330 333 336 335 338 336 345 348 343 346 343 340 341 340 340 348 352 352 353 352 347
308 310 313 313 312 313 316 327 327 328 325 321 319 320 322 323 323 326 322 321 320 323 332 333 332 331 328 332 334 333 336 335 342 347 348 351 354 354
299 310 320 319 317 316 317 316 319 317 314 314 315 316 317 317 318 319 318 319 318 317 318 323 326 325 325 328 326 328 331 329 332 335 341 340 341 345
307 318 317 318 315 315 313 313 312 312 312 311 311 311 311 312 311 314 316 315 315 316 316 318 317 317 320 322 326 320 320 322 326 329 333 331 332 339
305 320 317 316 314 314 313 312 310 312 316 311 311 310 309 309 307 307 308 308 308 308 309 312 313 314 310 308 315 316 315 317 321 323 325 326 331 337
311 313 314 313 312 311 310 309 309 310 308 309 308 308 307 307 306 305 305 304 303 303 304 307 308 307 301 302 304 308 312 319 318 317 318 322 326 324
311 311 311 310 310 310 310 310 311 308 308 307 307 306 306 305 303 304 303 302 302 303 302 302 304 309 306 306 302 303 307 308 310 310 314 317 316 316
310 310 310 311 310 310 309 308 306 305 305 304 303 303 302 302 301 300 300 299 299 300 300 301 303 303 303 302 300 301 302 304 308 310 312 314 315 312
310 309 312 312 310 308 307 305 303 303 302 301 301 300 300 298 299 299 298 299 298 297 298 298 300 300 299 299 300 299 300 300 302 303 304 309 311 311

GFSNE_sfc_thetae_105.txt.gz
Theta_e
337 346 349 350 349 346 344 334 338 328 328 330 331 340 341 342 342 341 342 344 350 350 346 343 345 344 345 346 348 350 350 349 348 346 344 342 342 342
337 348 346 348 346 346 345 342 342 334 331 334 335 340 341 342 343 345 344 348 350 352 348 342 343 346 345 343 344 345 346 346 346 345 343 341 340 341
347 347 346 347 350 349 347 346 344 344 337 342 340 340 340 340 341 346 352 353 354 347 345 341 339 345 344 342 341 341 342 342 342 343 344 342 341 339
347 345 346 350 345 345 346 345 342 343 340 334 341 344 339 345 347 348 355 360 357 353 342 339 340 342 340 338 336 336 335 335 336 337 340 341 341 339
348 348 347 348 346 344 342 341 344 347 343 340 340 341 342 346 349 347 345 352 354 351 344 341 337 337 337 335 332 330 328 327 328 329 331 334 337 338
351 349 349 348 345 345 345 344 344 341 342 341 340 340 343 347 348 345 347 349 346 354 349 345 344 341 338 334 333 332 327 324 324 324 324 326 329 332
350 351 349 348 345 343 346 344 343 341 340 338 338 339 339 341 342 346 345 345 346 347 348 349 349 350 351 346 348 344 334 328 325 323 322 321 322 324
348 347 346 336 337 337 338 337 338 339 338 340 340 339 340 342 346 345 345 343 340 348 347 348 350 350 352 355 348 344 340 332 328 325 322 321 320 320
345 346 344 329 324 327 335 340 339 336 338 340 339 340 342 344 346 344 343 343 343 348 348 345 349 347 352 354 345 341 337 336 331 327 325 322 321 319
334 339 328 318 315 317 330 338 342 336 336 338 339 340 340 341 341 344 345 345 346 346 346 339 345 342 346 348 342 338 333 331 329 327 325 322 318 315
317 320 315 310 314 316 321 323 329 332 331 326 325 326 326 325 328 334 335 337 337 338 344 342 343 336 336 340 345 337 333 329 324 322 323 322 317 314
322 316 315 309 310 311 311 314 320 323 318 318 322 327 330 334 331 336 338 336 336 334 344 339 335 333 333 340 344 348 347 336 327 326 325 321 315 325
317 315 313 311 307 307 309 310 316 314 317 319 324 322 321 323 324 328 331 338 335 333 337 335 334 335 335 336 340 343 343 345 346 345 331 327 320 322
309 313 307 308 306 306 308 313 311 314 318 318 318 318 318 320 321 323 324 321 323 324 327 330 332 328 326 328 332 335 337 340 341 340 342 337 329 318
306 307 308 308 309 312 314 315 314 318 314 311 311 312 314 315 316 316 316 316 316 318 321 321 319 318 317 316 317 322 327 330 332 333 335 337 342 345
300 301 307 312 312 313 311 312 311 310 309 307 307 309 310 311 309 312 311 313 311 314 316 317 313 313 312 315 316 316 319 318 322 321 322 326 329 335
296 304 309 308 307 307 308 307 308 307 306 305 305 306 307 307 305 307 308 306 306 305 305 307 311 313 312 311 312 311 311 312 313 315 317 320 324 325
297 303 304 305 305 305 304 304 305 307 304 304 304 304 303 303 303 304 305 303 301 301 300 303 304 305 302 304 313 306 305 302 305 312 314 312 314 318
298 303 303 303 302 302 302 302 301 302 301 302 302 302 302 302 302 301 301 300 300 300 301 302 302 300 296 294 299 308 301 302 304 303 304 305 305 307
298 302 302 302 302 301 301 300 301 300 301 300 300 300 299 299 298 298 298 297 296 297 297 298 298 298 295 295 297 301 305 302 302 300 300 302 304 309
302 301 302 303 302 302 301 300 300 299 298 297 297 297 297 296 295 295 295 297 296 295 294 294 296 303 299 300 295 296 299 303 303 300 300 299 299 301
302 302 302 302 302 301 300 299 298 297 296 295 295 295 295 295 294 294 294 293 293 294 294 295 297 297 296 294 293 294 295 298 301 305 307 306 300 296
300 300 300 300 300 299 298 297 296 296 295 294 293 292 292 292 292 293 293 293 293 293 293 293 294 295 294 294 294 293 293 295 296 295 297 304 306 306

GFSNE_sfc_thetae_108.txt.gz
Theta_e
336 344 345 346 344 341 339 335 336 328 329 333 331 336 340 342 342 342 340 341 342 341 341 342 341 343 344 345 344 346 348 348 348 347 346 344 344 345
335 342 342 343 344 344 342 338 341 334 329 336 334 334 341 344 343 341 341 345 344 342 342 340 339 341 342 343 342 342 344 345 345 345 344 343 341 342
344 343 344 343 344 346 344 344 340 339 333 337 339 339 338 339 343 342 345 346 353 344 339 338 337 338 339 340 339 338 339 341 341 342 344 344 342 340
344 344 344 347 342 343 342 340 340 341 337 332 337 340 339 342 344 344 350 354 352 346 338 336 336 335 334 334 334 332 332 333 335 336 339 341 342 341
346 344 345 344 344 343 340 338 342 343 341 338 337 340 341 344 345 348 349 349 353 349 343 340 339 337 335 332 330 328 324 323 325 328 331 333 337 339
348 348 346 346 343 343 343 341 342 339 338 336 335 336 340 343 344 342 344 345 346 352 347 344 341 341 338 335 334 334 328 324 320 320 323 324 328 331
349 349 344 342 339 338 342 341 341 337 337 334 334 335 335 337 337 342 342 344 344 345 345 348 349 349 350 344 346 342 330 328 324 321 319 319 320 322
346 346 338 334 336 333 333 335 338 338 335 335 336 335 336 338 342 342 341 339 337 346 344 346 348 346 348 349 338 335 331 330 326 324 322 319 318 319
340 341 334 324 321 325 332 337 337 335 335 336 335 335 337 340 342 339 338 338 339 345 344 341 344 342 343 344 334 333 330 328 326 325 323 323 321 319
332 326 318 314 315 320 326 329 336 331 329 329 328 331 333 334 332 333 334 338 341 344 343 335 342 340 338 337 333 332 329 327 326 324 323 320 316 315
316 313 310 309 313 316 315 319 323 324 322 321 321 321 321 322 326 331 334 333 331 336 341 337 337 335 333 335 341 332 329 327 324 323 323 321 316 314
317 315 314 308 310 310 309 309 312 315 314 318 321 321 320 321 324 327 330 329 329 329 330 329 331 330 329 336 338 342 338 328 325 323 323 321 317 334
314 313 309 311 307 307 308 309 312 312 316 317 315 317 317 318 319 318 319 321 319 321 321 323 318 318 322 327 332 325 325 329 332 332 321 316 317 320
308 308 306 307 307 308 310 311 312 316 312 310 310 309 310 311 312 313 313 313 314 315 313 312 311 310 310 311 314 317 320 324 320 317 318 316 316 318
304 305 307 306 308 310 312 312 311 308 306 306 304 304 305 306 306 307 309 308 311 309 309 308 307 308 307 306 308 312 312 313 311 307 311 316 319 323
301 303 310 311 310 309 308 308 308 306 303 302 302 303 305 303 303 304 303 304 303 302 303 305 304 307 303 301 306 305 307 304 302 303 306 308 309 313
300 308 307 304 304 304 304 305 304 302 302 301 301 301 302 302 301 302 301 300 298 299 299 301 302 302 301 298 301 299 299 299 301 302 303 302 303 305
300 303 303 302 302 301 300 300 300 301 299 301 299 299 299 299 299 299 299 297 296 297 297 298 298 296 296 296 306 297 297 298 300 301 300 298 298 301
300 303 300 300 299 299 299 299 297 298 299 298 298 296 297 297 296 295 295 295 294 294 295 295 295 294 292 290 296 305 297 298 297 297 298 298 297 299
299 300 301 300 299 298 299 298 297 297 296 296 295 295 295 294 294 293 294 292 293 292 292 293 293 294 292 291 293 296 301 296 296 295 296 297 299 305
298 299 299 299 298 298 297 296 295 295 294 293 292 292 292 292 291 292 292 294 293 292 291 291 293 299 295 295 292 292 295 300 300 296 296 295 294 295
298 299 298 298 298 297 296 295 295 294 292 292 291 292 292 291 291 291 292 292 292 293 293 294 294 294 294 292 291 292 293 295 299 301 302 299 294 291
298 298 298 297 297 296 295 295 294 293 292 291 290 290 290 290 290 291 294 294 293 293 293 292 292 293 293 293 293 292 293 293 294 293 295 301 302 303

GFSNE_sfc_thetae_111.txt.gz
Theta_e
337 338 343 343 339 337 337 333 333 325 327 333 331 334 337 339 342 343 341 341 340 341 340 339 339 341 343 344 345 344 346 348 348 348 347 347 346 347
334 338 340 342 342 342 340 336 337 333 327 334 335 334 338 342 345 343 341 343 343 341 339 336 337 339 340 342 342 342 342 343 344 345 345 345 344 344
342 343 341 342 341 343 342 341 338 335 332 334 337 338 338 340 343 345 348 348 349 343 339 337 337 337 338 338 337 338 338 339 339 341 343 344 344 343
342 341 342 347 341 340 341 340 339 339 336 330 335 339 339 341 342 343 349 352 349 346 338 337 336 335 335 334 334 333 330 330 331 333 337 341 342 342
345 344 344 343 342 342 339 338 339 341 338 336 335 338 339 341 342 344 347 346 351 348 343 340 337 336 335 332 330 328 323 321 323 324 328 332 335 339
347 347 346 345 342 342 342 341 340 339 336 334 333 333 336 340 341 339 341 343 345 350 347 343 341 341 339 334 335 333 325 322 321 321 321 323 326 329
347 348 344 342 339 337 342 342 340 337 336 334 333 333 334 335 335 340 339 341 342 343 343 345 346 346 345 339 341 336 330 327 324 322 322 319 319 320
344 341 339 336 333 331 332 333 336 336 334 334 333 333 334 336 339 339 338 335 333 344 341 343 345 343 342 339 333 332 329 327 326 324 322 321 320 319
343 342 331 321 323 327 332 331 330 331 333 338 335 335 334 339 332 331 331 333 333 339 341 338 341 339 339 338 330 329 328 326 324 323 322 321 319 317
332 330 323 315 315 320 324 333 328 323 322 323 321 323 325 326 326 329 330 332 335 338 332 332 337 333 336 335 330 327 325 322 322 321 318 316 316 316
319 319 314 309 313 315 314 317 318 315 319 321 321 319 319 319 323 327 328 326 325 332 317 322 330 326 331 334 336 321 321 319 319 317 316 314 312 317
317 315 314 309 309 310 308 309 310 312 315 315 315 316 316 316 319 315 317 316 323 314 312 316 311 318 317 328 329 319 321 317 314 311 311 311 310 324
313 311 307 310 307 306 309 310 311 312 315 311 310 310 310 310 312 311 313 313 312 307 308 309 307 307 310 314 318 316 317 313 306 305 307 308 310 314
307 306 304 306 307 308 310 311 311 311 307 306 305 304 303 303 304 306 306 307 306 302 303 304 303 303 303 305 306 310 310 309 302 302 304 306 306 307
302 305 306 306 307 309 311 310 308 304 304 303 301 300 300 301 302 302 302 305 301 302 304 301 299 301 301 298 300 302 303 301 301 301 302 302 302 304
303 309 310 309 308 307 305 305 305 303 302 301 300 300 300 300 300 299 297 298 297 297 299 300 299 297 295 295 299 296 298 295 298 299 300 300 300 301
302 305 304 303 303 302 302 301 301 301 300 299 298 297 298 298 297 297 296 294 294 293 294 296 297 296 295 295 294 295 295 295 297 297 297 296 298 299
303 302 301 301 300 299 297 298 298 299 297 297 296 296 295 295 294 294 294 292 291 292 292 293 294 293 293 294 301 293 294 294 295 296 296 295 295 297
302 300 301 299 299 298 297 297 296 296 296 295 294 294 295 294 293 292 292 292 291 290 290 291 292 291 289 288 292 301 293 293 294 293 294 294 293 295
299 299 299 298 297 297 296 295 295 294 294 294 293 292 292 292 291 291 291 290 290 290 289 290 291 292 290 289 290 293 299 294 293 293 293 295 296 301
298 298 298 297 296 295 294 294 293 292 291 290 290 290 291 291 290 290 290 293 292 289 289 289 291 298 294 293 290 292 294 299 299 295 295 294 293 293
297 297 297 296 296 295 294 293 292 291 290 289 289 289 289 290 289 290 290 290 289 290 289 290 293 295 294 292 291 292 292 295 299 301 302 299 295 291
297 297 296 295 294 294 293 292 291 290 289 289 289 289 289 289 289 289 290 290 290 289 289 289 291 294 294 293 293 292 294 294 295 294 295 301 301 301

GFSNE_sfc_thetae_114.txt.gz
Theta_e
345 346 350 351 342 343 344 344 343 338 339 343 341 345 348 351 351 354 352 344 341 341 339 337 339 341 343 344 345 345 345 347 349 349 349 349 350 349
342 346 349 350 349 347 346 343 344 342 338 343 344 345 350 349 351 354 354 347 345 341 338 337 338 339 340 340 341 341 342 342 343 345 345 345 346 347
348 347 349 348 347 348 348 346 344 342 339 343 345 348 349 351 353 354 356 357 355 340 338 338 336 337 338 338 337 337 336 336 337 340 343 344 344 345
348 347 347 348 349 348 347 348 346 345 343 341 343 347 348 351 351 353 353 354 356 345 338 337 335 335 335 334 332 330 326 327 329 330 336 341 343 343
351 349 349 349 348 349 347 346 344 346 345 343 343 346 346 348 350 351 353 355 353 347 342 340 337 336 334 331 330 325 322 322 323 324 326 332 336 339
350 350 350 351 350 349 347 347 346 346 343 342 341 340 342 346 347 346 348 350 348 352 348 343 342 340 338 332 332 330 325 322 322 321 322 322 324 327
348 351 349 344 340 340 348 347 346 346 344 342 339 341 342 342 343 346 345 345 346 351 349 351 354 352 346 339 338 331 326 322 320 319 320 320 321 324
346 348 341 337 335 331 333 334 338 344 343 342 340 341 342 344 344 338 341 339 337 346 345 349 349 343 344 335 329 327 323 320 318 316 316 316 318 319
345 341 334 328 328 333 331 329 329 328 333 344 342 340 336 339 333 335 337 339 340 325 340 346 341 335 342 325 324 324 320 316 314 315 315 314 314 316
331 331 325 322 323 323 337 335 326 327 327 327 329 328 326 326 331 335 336 339 343 322 322 331 333 329 341 335 321 320 317 312 311 312 312 311 311 313
320 321 319 314 313 315 325 328 322 323 320 319 319 318 316 316 319 330 326 333 334 325 313 323 319 322 332 332 324 320 312 309 308 309 310 309 306 311
320 318 314 313 311 311 317 320 320 319 322 320 318 316 317 316 316 320 323 328 329 317 312 317 313 316 317 329 322 317 318 308 306 306 308 306 305 312
318 317 312 309 308 307 310 320 319 320 316 314 312 311 311 312 311 312 312 315 313 305 307 312 308 311 313 314 319 314 312 307 306 307 306 304 304 305
314 311 308 307 307 307 313 310 310 312 312 309 308 306 306 306 308 308 309 308 308 306 307 307 306 305 305 306 306 309 307 308 305 304 305 304 305 305
307 307 307 306 307 309 310 309 309 309 309 307 305 304 305 305 306 306 308 307 306 305 304 304 301 303 304 303 305 302 301 302 303 302 303 303 303 305
309 313 311 309 308 308 308 309 308 308 307 305 304 304 304 302 301 302 301 303 300 300 302 303 302 302 301 303 302 300 300 298 300 301 301 302 303 304
307 310 308 307 306 305 306 306 305 305 303 303 302 301 300 299 299 300 299 298 297 296 296 299 301 302 303 304 300 299 298 298 299 299 299 299 301 302
308 307 305 306 305 304 304 302 302 301 301 301 300 299 298 298 297 298 298 297 296 295 296 296 297 298 299 301 302 297 298 297 298 299 299 297 298 301
308 307 305 304 303 303 302 302 300 300 301 300 299 298 297 297 297 296 296 296 295 295 296 296 296 296 294 293 298 300 296 297 298 298 299 298 297 299
306 305 304 303 303 302 301 300 299 298 298 297 297 297 297 297 296 296 296 295 295 295 295 296 296 295 294 292 294 298 299 298 298 297 298 299 301 303
304 304 304 303 302 302 300 299 299 297 296 296 296 296 296 297 296 296 296 294 294 295 294 294 296 298 299 299 296 296 299 301 301 298 298 296 296 297
304 304 303 303 302 301 299 299 297 296 296 296 295 296 296 296 296 295 296 295 295 295 295 296 298 298 298 296 295 296 297 300 302 302 301 299 295 292
304 304 303 302 302 300 299 298 297 296 296 295 295 296 296 295 296 296 296 296 296 295 295 294 296 297 297 296 296 296 298 298 298 297 298 301 302 302

GFSNE_sfc_thetae_117.txt.gz
Theta_e
357 356 358 359 354 355 354 351 345 337 340 350 349 357 357 361 356 363 362 347 345 343 339 338 340 342 344 344 345 345 346 347 347 348 350 352 353 352
354 353 356 357 357 357 355 353 351 347 340 350 351 355 358 358 359 361 359 352 347 342 340 339 339 341 342 341 339 338 338 341 342 344 346 347 348 349
357 356 357 360 354 354 355 354 352 351 344 346 353 355 358 359 360 360 358 359 357 341 340 338 336 337 338 337 335 333 333 334 335 338 341 344 346 346
357 357 356 353 358 362 354 356 354 356 349 348 352 351 356 358 358 359 355 354 358 345 339 337 335 334 333 332 330 328 327 328 328 330 334 339 342 343
357 357 356 356 358 354 361 361 355 353 356 350 349 353 352 352 353 357 358 359 352 349 341 340 337 335 332 329 326 322 319 319 321 324 326 328 332 334
357 358 359 358 358 358 358 359 355 358 358 354 352 349 349 354 353 351 349 353 350 356 349 344 342 337 332 325 324 321 317 316 316 316 318 321 325 327
356 357 359 344 338 338 349 358 357 357 356 354 354 350 355 348 353 351 346 347 355 348 357 349 347 346 341 329 325 320 318 317 315 314 315 316 319 322
352 355 350 341 337 335 335 336 341 353 353 353 353 349 351 349 350 342 343 343 343 338 350 343 345 334 335 326 318 316 315 314 314 313 312 314 318 319
351 354 345 335 336 339 332 329 328 327 332 351 350 349 344 347 340 343 348 347 346 330 341 353 341 339 333 322 316 314 313 312 312 311 310 309 311 316
338 342 339 327 324 328 338 332 330 331 335 336 339 331 330 333 341 345 349 349 337 330 330 337 333 335 338 325 314 312 311 310 310 309 309 307 306 309
324 325 329 322 314 316 332 332 328 326 318 318 318 317 316 317 323 337 336 336 338 332 319 328 327 326 335 331 324 312 310 309 309 309 308 307 305 307
325 321 313 318 311 311 328 331 329 330 327 326 325 323 324 321 318 326 330 331 333 327 313 320 322 320 323 329 321 317 317 309 308 307 307 306 304 313
330 327 325 311 310 308 312 327 327 328 322 324 321 320 320 320 318 318 319 319 323 314 310 316 316 314 315 317 320 315 313 311 311 311 307 304 304 305
329 325 320 308 308 309 317 311 312 318 322 320 318 316 315 315 315 315 315 314 313 312 312 313 312 310 311 313 314 312 310 311 310 310 310 307 306 306
317 311 309 306 307 311 310 311 313 317 317 313 315 312 311 312 316 313 312 312 311 310 309 311 309 311 311 311 310 307 305 308 308 307 308 309 309 310
315 314 313 313 310 312 314 316 315 314 313 313 311 310 310 309 307 309 308 310 308 306 308 308 309 310 310 310 307 305 306 304 306 306 307 308 309 310
315 317 316 314 311 310 309 313 311 312 312 311 310 308 306 306 305 307 306 307 305 305 304 305 309 310 309 309 307 304 304 304 305 306 306 306 308 309
313 316 314 314 313 312 312 309 308 308 305 306 304 307 306 303 305 305 305 304 303 303 303 304 305 307 306 306 304 303 304 303 305 306 307 304 305 308
312 314 313 313 311 311 310 310 307 308 309 306 306 305 305 304 306 304 304 305 303 305 303 304 304 303 303 301 305 304 301 302 303 303 304 304 303 305
308 311 314 314 313 312 310 309 307 306 306 305 304 304 305 305 304 304 305 304 305 305 304 303 303 302 301 300 301 304 301 303 302 301 302 303 304 306
309 311 314 313 311 310 309 308 307 306 304 304 304 304 305 305 304 305 301 297 299 305 303 302 302 299 305 306 303 304 306 302 303 302 302 300 299 300
311 312 312 312 311 310 309 307 306 303 303 303 303 304 304 305 303 303 304 304 305 305 304 305 307 307 306 302 300 302 303 305 305 305 304 300 298 294
313 313 312 312 311 310 309 307 305 304 303 303 303 303 303 303 305 305 305 305 305 304 304 304 305 305 304 302 300 301 302 303 303 302 303 305 303 303